CW0099 Weather Reports


time (UTC)temp
C
wind
direction
speed
KPH
gust
KPH
rain 1hr
cm
rain 24hr
cm
rain mn
cm
humidity
%
barometer
mb
20220524032502 16 143 0.0 0.0 0.00 0.00 0.00 68 1020.4
20220524032402 16 143 0.0 0.0 0.00 0.00 0.00 68 1020.5
20220524032305 16 143 0.0 0.0 0.00 0.00 0.00 68 1020.5
20220524032205 16 143 0.0 0.0 0.00 0.00 0.00 67 1020.5
20220524032105 16 143 0.0 0.0 0.00 0.00 0.00 67 1020.5
20220524032004 16 143 0.0 0.0 0.00 0.00 0.00 67 1020.4
20220524031903 16 143 0.0 0.0 0.00 0.00 0.00 67 1020.4
20220524031803 16 143 0.0 0.0 0.00 0.00 0.00 66 1020.6
20220524031703 16 143 0.0 0.0 0.00 0.00 0.00 67 1020.3
20220524031607 16 143 0.0 0.0 0.00 0.00 0.00 66 1020.3
20220524031506 16 143 0.0 0.0 0.00 0.00 0.00 66 1020.4
20220524031406 16 143 0.0 0.0 0.00 0.00 0.00 65 1020.3
20220524031306 16 143 0.0 0.0 0.00 0.00 0.00 65 1020.4
20220524031205 16 143 0.0 0.0 0.00 0.00 0.00 65 1020.2
20220524031104 16 143 0.0 0.0 0.00 0.00 0.00 65 1020.2
20220524031008 16 143 0.0 0.0 0.00 0.00 0.00 65 1020.2
20220524030848 16 143 0.0 0.0 0.00 0.00 0.00 65 1020.3
20220524030807 16 143 0.0 0.0 0.00 0.00 0.00 65 1020.1
20220524030706 16 143 0.0 0.0 0.00 0.00 0.00 65 1020.3
20220524030606 16 143 0.0 0.0 0.00 0.00 0.00 65 1020.3
20220524030505 16 143 0.0 0.0 0.00 0.00 0.00 65 1020.2
20220524030349 16 143 0.0 0.0 0.00 0.00 0.00 65 1020.1
20220524030250 16 143 0.0 0.0 0.00 0.00 0.00 65 1020.3
20220524030149 16 143 0.0 0.0 0.00 0.00 0.00 65 1020.3
20220524030050 16 143 0.0 0.0 0.00 0.00 0.00 66 1020.1
20220524025950 17 143 0.0 0.0 0.00 0.00 0.00 65 1020.1
20220524025908 17 143 0.0 0.0 0.00 0.00 0.00 65 1020.0
20220524025809 17 143 0.0 0.0 0.00 0.00 0.00 65 1020.0
20220524025652 17 143 0.0 0.0 0.00 0.00 0.00 65 1019.9
20220524025551 17 143 0.0 0.0 0.00 0.00 0.00 65 1019.9
20220524025451 17 143 0.0 0.0 0.00 0.00 0.00 65 1019.9
20220524025351 17 143 0.0 0.0 0.00 0.00 0.00 65 1019.8
20220524025249 17 143 0.0 0.0 0.00 0.00 0.00 65 1019.8
20220524025149 17 143 0.0 0.0 0.00 0.00 0.00 65 1019.7
20220524025054 17 143 0.0 0.0 0.00 0.00 0.00 65 1019.7
20220524024954 17 143 0.0 0.0 0.00 0.00 0.00 65 1019.7
20220524024852 17 143 0.0 0.0 0.00 0.00 0.00 65 1019.6
20220524024753 17 143 0.0 0.0 0.00 0.00 0.00 65 1019.5
20220524024653 17 143 0.0 0.0 0.00 0.00 0.00 65 1019.6
20220524024552 17 143 0.0 0.0 0.00 0.00 0.00 65 1019.6
20220524024450 17 143 0.0 0.0 0.00 0.00 0.00 65 1019.7
20220524024355 17 143 0.0 0.0 0.00 0.00 0.00 65 1019.7
20220524024254 17 143 0.0 0.0 0.00 0.00 0.00 64 1019.6
20220524024154 17 142 6.4 0.0 0.00 0.00 0.00 64 1019.5
20220524024051 17 138 8.0 0.0 0.00 0.00 0.00 65 1019.4
20220524023950 17 138 0.0 0.0 0.00 0.00 0.00 65 1019.3
20220524023850 17 138 0.0 0.0 0.00 0.00 0.00 64 1019.4
20220524023753 17 137 6.4 0.0 0.00 0.00 0.00 65 1019.2
20220524023652 17 136 8.0 0.0 0.00 0.00 0.00 65 1019.3
20220524023550 17 142 8.0 0.0 0.00 0.00 0.00 65 1019.1
20220524023450 17 115 0.0 0.0 0.00 0.00 0.00 65 1019.2
20220524023349 17 115 0.0 0.0 0.00 0.00 0.00 65 1019.2
20220524023309 17 115 0.0 0.0 0.00 0.00 0.00 64 1019.3
20220524023207 17 120 1.6 0.0 0.00 0.00 0.00 64 1019.5
20220524023051 17 134 0.0 0.0 0.00 0.00 0.00 64 1019.3
20220524022953 17 134 3.2 0.0 0.00 0.00 0.00 64 1019.3
20220524022849 17 134 3.2 0.0 0.00 0.00 0.00 64 1019.4
20220524022749 17 134 1.6 0.0 0.00 0.00 0.00 64 1019.5
20220524022648 17 134 0.0 0.0 0.00 0.00 0.00 64 1019.7
20220524022610 17 134 0.0 0.0 0.00 0.00 0.00 64 1019.5
20220524022506 17 134 0.0 0.0 0.00 0.00 0.00 63 1019.6
20220524022408 17 134 0.0 0.0 0.00 0.00 0.00 63 1019.5
20220524022307 17 134 0.0 0.0 0.00 0.00 0.00 64 1019.7
20220524022207 17 134 0.0 0.0 0.00 0.00 0.00 64 1019.6
20220524022108 17 134 0.0 0.0 0.00 0.00 0.00 64 1019.8
20220524022007 17 134 0.0 0.0 0.00 0.00 0.00 63 1019.8
20220524021905 17 134 0.0 0.0 0.00 0.00 0.00 64 1019.8
20220524021750 17 134 0.0 0.0 0.00 0.00 0.00 64 1019.8
20220524021649 17 134 0.0 0.0 0.00 0.00 0.00 63 1019.8
20220524021608 17 134 0.0 0.0 0.00 0.00 0.00 64 1019.9
20220524021509 17 134 0.0 0.0 0.00 0.00 0.00 64 1019.8
20220524021406 17 134 0.0 0.0 0.00 0.00 0.00 64 1019.7
20220524021304 17 134 0.0 0.0 0.00 0.00 0.00 63 1019.7
20220524021205 17 128 0.0 0.0 0.00 0.00 0.00 63 1019.6
20220524021109 17 38 0.0 0.0 0.00 0.00 0.00 63 1019.5
20220524021007 17 38 0.0 0.0 0.00 0.00 0.00 63 1019.6
20220524020905 17 38 0.0 0.0 0.00 0.00 0.00 63 1019.7
20220524020804 17 38 0.0 0.0 0.00 0.00 0.00 63 1019.5
20220524020703 17 38 0.0 0.0 0.00 0.00 0.00 63 1019.8
20220524020605 17 38 0.0 0.0 0.00 0.00 0.00 63 1019.8
20220524020505 17 38 0.0 0.0 0.00 0.00 0.00 63 1019.6
20220524020401 17 38 0.0 0.0 0.00 0.00 0.00 63 1019.7
20220524020259 17 38 0.0 0.0 0.00 0.00 0.00 63 1019.6
20220524020158 17 38 0.0 0.0 0.00 0.00 0.00 63 1019.6
20220524020057 17 38 0.0 0.0 0.00 0.00 0.00 63 1019.6
20220524015955 17 51 3.2 0.0 0.00 0.00 0.00 63 1019.6
20220524015853 17 66 0.0 0.0 0.00 0.00 0.00 63 1019.5
20220524015756 17 66 0.0 0.0 0.00 0.00 0.00 63 1019.5
20220524015658 17 66 0.0 0.0 0.00 0.00 0.00 63 1019.4
20220524015556 17 66 0.0 0.0 0.00 0.00 0.00 63 1019.5
20220524015454 17 66 0.0 0.0 0.00 0.00 0.00 63 1019.3
20220524015353 17 66 0.0 0.0 0.00 0.00 0.00 63 1019.3
20220524015251 17 66 0.0 0.0 0.00 0.00 0.00 63 1019.4
20220524015153 17 66 0.0 0.0 0.00 0.00 0.00 63 1019.4
20220524015053 17 66 0.0 0.0 0.00 0.00 0.00 63 1019.4
20220524014950 17 66 0.0 0.0 0.00 0.00 0.00 63 1019.4
20220524014910 17 66 0.0 0.0 0.00 0.00 0.00 62 1019.4
20220524014807 17 66 0.0 0.0 0.00 0.00 0.00 63 1019.4
20220524014706 17 66 0.0 0.0 0.00 0.00 0.00 62 1019.4
20220524014607 17 66 0.0 0.0 0.00 0.00 0.00 62 1019.4
20220524014509 17 66 0.0 0.0 0.00 0.00 0.00 62 1019.3
20220524014405 17 36 0.0 0.0 0.00 0.00 0.00 62 1019.4
20220524014305 17 36 0.0 0.0 0.00 0.00 0.00 61 1019.4
20220524014202 17 36 0.0 0.0 0.00 0.00 0.00 61 1019.4
20220524014102 17 31 0.0 0.0 0.00 0.00 0.00 61 1019.5
20220524014002 17 31 0.0 0.0 0.00 0.00 0.00 61 1019.5
20220524013902 17 31 0.0 0.0 0.00 0.00 0.00 61 1019.4
20220524013803 17 31 0.0 0.0 0.00 0.00 0.00 61 1019.5
20220524013704 17 31 0.0 0.0 0.00 0.00 0.00 61 1019.5
20220524013600 17 31 0.0 0.0 0.00 0.00 0.00 61 1019.5
20220524013459 17 31 0.0 0.0 0.00 0.00 0.00 61 1019.4
20220524013400 17 31 4.8 0.0 0.00 0.00 0.00 61 1019.6
20220524013255 17 31 0.0 0.0 0.00 0.00 0.00 60 1019.4
20220524013154 17 31 0.0 0.0 0.00 0.00 0.00 60 1019.4
20220524013054 17 31 0.0 0.0 0.00 0.00 0.00 60 1019.3
20220524012954 17 31 0.0 0.0 0.00 0.00 0.00 60 1019.5
20220524012852 17 31 0.0 0.0 0.00 0.00 0.00 60 1019.5
20220524012753 17 31 0.0 0.0 0.00 0.00 0.00 60 1019.4
20220524012650 17 31 0.0 0.0 0.00 0.00 0.00 60 1019.3
20220524012610 17 31 0.0 0.0 0.00 0.00 0.00 60 1019.4
20220524012451 17 31 0.0 0.0 0.00 0.00 0.00 60 1019.4
20220524012351 17 31 0.0 0.0 0.00 0.00 0.00 59 1019.4
20220524012249 17 31 0.0 0.0 0.00 0.00 0.00 59 1019.5
20220524012149 17 31 0.0 0.0 0.00 0.00 0.00 59 1019.5
20220524012050 17 31 0.0 0.0 0.00 0.00 0.00 59 1019.6
20220524012007 17 31 0.0 0.0 0.00 0.00 0.00 59 1019.5
20220524011849 17 31 0.0 0.0 0.00 0.00 0.00 59 1019.5
20220524011810 17 31 3.2 0.0 0.00 0.00 0.00 59 1019.5
20220524011709 17 31 0.0 0.0 0.00 0.00 0.00 59 1019.6
20220524011606 17 31 0.0 0.0 0.00 0.00 0.00 59 1019.5
20220524011504 17 83 0.0 0.0 0.00 0.00 0.00 59 1019.4
20220524011403 17 83 0.0 0.0 0.00 0.00 0.00 59 1019.5
20220524011302 17 124 1.6 0.0 0.00 0.00 0.00 59 1019.4
20220524011207 17 124 3.2 0.0 0.00 0.00 0.00 59 1019.4
20220524011108 17 123 0.0 0.0 0.00 0.00 0.00 59 1019.4
20220524011006 17 123 0.0 0.0 0.00 0.00 0.00 59 1019.3
20220524010906 17 123 0.0 0.0 0.00 0.00 0.00 59 1019.4
20220524010806 17 123 0.0 0.0 0.00 0.00 0.00 59 1019.3
20220524010707 17 143 0.0 0.0 0.00 0.00 0.00 59 1019.3
20220524010551 17 143 0.0 0.0 0.00 0.00 0.00 59 1019.2
20220524010448 17 143 0.0 0.0 0.00 0.00 0.00 59 1019.2
20220524010409 17 143 0.0 0.0 0.00 0.00 0.00 59 1019.1
20220524010307 17 143 0.0 0.0 0.00 0.00 0.00 59 1019.3
20220524010207 17 143 0.0 0.0 0.00 0.00 0.00 59 1019.3
20220524010106 17 143 0.0 0.0 0.00 0.00 0.00 59 1019.3
20220524010004 17 143 0.0 0.0 0.00 0.00 0.00 59 1019.3
20220524005905 17 143 1.6 0.0 0.00 0.00 0.00 59 1019.3
20220524005808 17 122 11.3 0.0 0.00 0.00 0.00 59 1019.3
20220524005707 17 131 0.0 0.0 0.00 0.00 0.00 59 1019.2
20220524005606 17 156 9.7 0.0 0.00 0.00 0.00 59 1019.1
20220524005506 17 120 9.7 0.0 0.00 0.00 0.00 58 1019.2
20220524005402 17 71 0.0 0.0 0.00 0.00 0.00 59 1019.0
20220524005302 17 133 4.8 0.0 0.00 0.00 0.00 59 1018.9
20220524005206 17 107 1.6 0.0 0.00 0.00 0.00 58 1018.7
20220524005103 17 49 4.8 0.0 0.00 0.00 0.00 59 1018.7
20220524005003 17 34 0.0 0.0 0.00 0.00 0.00 59 1018.6
20220524004903 17 34 0.0 0.0 0.00 0.00 0.00 59 1018.6
20220524004801 17 32 0.0 0.0 0.00 0.00 0.00 58 1018.5
20220524004700 17 30 3.2 0.0 0.00 0.00 0.00 58 1018.4
20220524004604 17 81 4.8 0.0 0.00 0.00 0.00 58 1018.6
20220524004500 18 86 0.0 0.0 0.00 0.00 0.00 59 1018.6
20220524004359 18 86 0.0 0.0 0.00 0.00 0.00 58 1018.8
20220524004259 18 79 0.0 0.0 0.00 0.00 0.00 58 1018.9
20220524004159 18 0 3.2 0.0 0.00 0.00 0.00 58 1018.8
20220524004059 18 8 4.8 0.0 0.00 0.00 0.00 58 1018.9
20220524003957 18 9 0.0 0.0 0.00 0.00 0.00 58 1018.8
20220524003903 18 18 3.2 0.0 0.00 0.00 0.00 58 1018.8
20220524003803 18 33 0.0 0.0 0.00 0.00 0.00 58 1018.8
20220524003703 18 33 0.0 0.0 0.00 0.00 0.00 58 1018.7
20220524003601 18 33 0.0 0.0 0.00 0.00 0.00 58 1018.8
20220524003501 18 34 4.8 0.0 0.00 0.00 0.00 58 1018.7
20220524003359 18 77 3.2 0.0 0.00 0.00 0.00 58 1018.7
20220524003303 18 46 4.8 0.0 0.00 0.00 0.00 58 1018.7
20220524003200 18 2 0.0 0.0 0.00 0.00 0.00 58 1018.8
20220524003100 18 54 3.2 0.0 0.00 0.00 0.00 58 1018.9
20220524002958 18 54 0.0 0.0 0.00 0.00 0.00 59 1018.9
20220524002855 18 54 0.0 0.0 0.00 0.00 0.00 58 1018.9
20220524002751 18 54 0.0 0.0 0.00 0.00 0.00 58 1018.9
20220524002651 18 54 4.8 0.0 0.00 0.00 0.00 58 1019.0
20220524002553 18 54 0.0 0.0 0.00 0.00 0.00 58 1019.1
20220524002454 18 52 0.0 0.0 0.00 0.00 0.00 59 1019.1
20220524002352 18 93 0.0 0.0 0.00 0.00 0.00 58 1019.1
20220524002310 18 93 0.0 0.0 0.00 0.00 0.00 58 1019.1
20220524002208 18 93 0.0 0.0 0.00 0.00 0.00 58 1019.2
20220524002105 18 90 1.6 0.0 0.00 0.00 0.00 58 1019.1
20220524001950 18 98 0.0 0.0 0.00 0.00 0.00 58 1019.0
20220524001852 18 59 1.6 0.0 0.00 0.00 0.00 58 1018.9
20220524001749 18 74 0.0 0.0 0.00 0.00 0.00 59 1019.1
20220524001707 18 74 0.0 0.0 0.00 0.00 0.00 58 1019.0
20220524001608 18 76 0.0 0.0 0.00 0.00 0.00 58 1019.1
20220524001506 18 91 0.0 0.0 0.00 0.00 0.00 59 1019.2
20220524001403 18 54 0.0 0.0 0.00 0.00 0.00 58 1019.2
20220524001307 18 54 0.0 0.0 0.00 0.00 0.00 58 1019.3
20220524001205 18 54 0.0 0.0 0.00 0.00 0.00 58 1019.3
20220524001106 18 53 0.0 0.0 0.00 0.00 0.00 58 1019.3
20220524001003 18 103 0.0 0.0 0.00 0.00 0.00 58 1019.4
20220524000902 18 130 0.0 0.0 0.00 0.00 0.00 58 1019.5
20220524000801 18 61 0.0 0.0 0.00 0.00 0.00 58 1019.6
20220524000701 18 62 3.2 0.0 0.00 0.00 0.00 58 1019.7
20220524000604 18 84 3.2 0.0 0.00 0.00 0.00 58 1019.7
20220524000505 18 136 0.0 0.0 0.00 0.00 0.00 58 1019.6
20220524000402 18 136 0.0 0.0 0.00 0.00 0.00 58 1019.7
20220524000300 18 135 0.0 0.0 0.00 0.00 0.00 58 1019.8
20220524000158 18 136 0.0 0.0 0.00 0.00 0.00 58 1019.9
20220524000059 18 143 0.0 0.0 0.00 0.00 0.00 58 1019.8
20220524000005 18 142 0.0 0.0 0.00 0.00 0.00 58 1019.9
20220523235903 18 142 0.0 0.0 0.00 0.00 0.00 59 1020.0
20220523235804 18 142 0.0 0.0 0.00 0.00 0.00 58 1020.1
20220523235701 18 142 0.0 0.0 0.00 0.00 0.00 58 1020.1
20220523235559 18 143 0.0 0.0 0.00 0.00 0.00 58 1020.1
20220523235501 18 144 1.6 0.0 0.00 0.00 0.00 58 1020.3
20220523235401 18 144 0.0 0.0 0.00 0.00 0.00 58 1020.3
20220523235302 18 144 0.0 0.0 0.00 0.00 0.00 58 1020.4
20220523235201 18 144 6.4 0.0 0.00 0.00 0.00 58 1020.5
20220523235101 18 139 0.0 0.0 0.00 0.00 0.00 58 1020.5
20220523235000 18 139 0.0 0.0 0.00 0.00 0.00 58 1020.4
20220523234902 18 139 0.0 0.0 0.00 0.00 0.00 58 1020.4
20220523234758 18 89 6.4 0.0 0.00 0.00 0.00 58 1020.4
20220523234700 18 150 3.2 0.0 0.00 0.00 0.00 58 1020.3
20220523234601 18 109 1.6 0.0 0.00 0.00 0.00 59 1020.4
20220523234500 18 110 0.0 0.0 0.00 0.00 0.00 58 1020.4
20220523234357 18 110 0.0 0.0 0.00 0.00 0.00 58 1020.6
20220523234255 18 109 0.0 0.0 0.00 0.00 0.00 58 1020.5
20220523234153 18 142 0.0 0.0 0.00 0.00 0.00 58 1020.5
20220523234054 18 142 0.0 0.0 0.00 0.00 0.00 58 1020.6
20220523233957 18 120 1.6 0.0 0.00 0.00 0.00 58 1020.5
20220523233853 18 118 0.0 0.0 0.00 0.00 0.00 58 1020.5
20220523233750 18 118 0.0 0.0 0.00 0.00 0.00 58 1020.6
20220523233651 18 119 0.0 0.0 0.00 0.00 0.00 58 1020.5
20220523233611 18 119 0.0 0.0 0.00 0.00 0.00 58 1020.6
20220523233509 18 119 0.0 0.0 0.00 0.00 0.00 58 1020.7
20220523233352 18 124 9.7 0.0 0.00 0.00 0.00 58 1020.6
20220523233251 18 146 1.6 0.0 0.00 0.00 0.00 58 1020.5
20220523233150 18 154 4.8 0.0 0.00 0.00 0.00 57 1020.6
20220523233050 18 154 4.8 0.0 0.00 0.00 0.00 58 1020.6
20220523232949 18 130 0.0 0.0 0.00 0.00 0.00 58 1020.6
20220523232911 18 130 0.0 0.0 0.00 0.00 0.00 57 1020.7
20220523232809 18 139 8.0 0.0 0.00 0.00 0.00 57 1020.6
20220523232652 18 146 4.8 0.0 0.00 0.00 0.00 58 1020.7
20220523232610 18 146 0.0 0.0 0.00 0.00 0.00 58 1020.8
20220523232449 18 147 3.2 0.0 0.00 0.00 0.00 58 1020.7
20220523232408 18 149 6.4 0.0 0.00 0.00 0.00 58 1020.8
20220523232308 18 57 0.0 0.0 0.00 0.00 0.00 59 1020.8
20220523232205 18 135 3.2 0.0 0.00 0.00 0.00 59 1020.7
20220523232104 18 135 0.0 0.0 0.00 0.00 0.00 59 1020.7
20220523232008 18 135 0.0 0.0 0.00 0.00 0.00 59 1020.8
20220523231904 18 135 1.6 0.0 0.00 0.00 0.00 59 1020.7
20220523231804 18 135 1.6 0.0 0.00 0.00 0.00 59 1020.8
20220523231705 18 139 0.0 0.0 0.00 0.00 0.00 59 1020.8
20220523231604 18 139 0.0 0.0 0.00 0.00 0.00 59 1020.7
20220523231501 18 139 0.0 0.0 0.00 0.00 0.00 59 1020.7
20220523231405 18 137 4.8 0.0 0.00 0.00 0.00 59 1020.8
20220523231302 18 137 6.4 0.0 0.00 0.00 0.00 59 1020.8
20220523231202 18 143 6.4 0.0 0.00 0.00 0.00 60 1020.8
20220523231103 18 141 0.0 0.0 0.00 0.00 0.00 59 1020.8
20220523231002 18 143 6.4 0.0 0.00 0.00 0.00 59 1020.8
20220523230902 18 120 4.8 0.0 0.00 0.00 0.00 59 1020.7
20220523230802 18 112 0.0 0.0 0.00 0.00 0.00 59 1020.8
20220523230703 18 113 0.0 0.0 0.00 0.00 0.00 60 1020.9
20220523230601 18 113 0.0 0.0 0.00 0.00 0.00 60 1020.9
20220523230501 18 113 3.2 0.0 0.00 0.00 0.00 60 1020.9
20220523230359 18 113 0.0 0.0 0.00 0.00 0.00 60 1020.8
20220523230256 18 107 4.8 0.0 0.00 0.00 0.00 60 1020.9
20220523230156 18 107 0.0 0.0 0.00 0.00 0.00 59 1021.0
20220523230058 18 107 0.0 0.0 0.00 0.00 0.00 59 1021.0
20220523225957 18 107 0.0 0.0 0.00 0.00 0.00 59 1021.0
20220523225856 18 107 3.2 0.0 0.00 0.00 0.00 59 1021.0
20220523225754 18 107 0.0 0.0 0.00 0.00 0.00 59 1021.0
20220523225654 18 114 3.2 0.0 0.00 0.00 0.00 59 1021.1
20220523225554 18 125 4.8 0.0 0.00 0.00 0.00 60 1021.0
20220523225452 18 135 0.0 0.0 0.00 0.00 0.00 60 1021.1
20220523225356 18 135 0.0 0.0 0.00 0.00 0.00 60 1021.0
20220523225256 18 135 0.0 0.0 0.00 0.00 0.00 59 1021.0
20220523225155 18 135 3.2 0.0 0.00 0.00 0.00 58 1021.0
20220523225113 18 135 4.8 0.0 0.00 0.00 0.00 58 1021.0
20220523225009 19 106 4.8 0.0 0.00 0.00 0.00 58 1021.0
20220523224906 19 161 0.0 0.0 0.00 0.00 0.00 58 1021.0
20220523224751 19 144 4.8 0.0 0.00 0.00 0.00 59 1021.0
20220523224650 19 162 3.2 0.0 0.00 0.00 0.00 58 1021.1
20220523224550 19 162 3.2 0.0 0.00 0.00 0.00 59 1021.1
20220523224449 19 170 6.4 0.0 0.00 0.00 0.00 58 1021.0
20220523224351 19 151 6.4 0.0 0.00 0.00 0.00 58 1021.1
20220523224308 19 151 0.0 0.0 0.00 0.00 0.00 58 1021.2
20220523224208 19 151 6.4 0.0 0.00 0.00 0.00 58 1021.0
20220523224050 19 142 6.4 0.0 0.00 0.00 0.00 58 1021.1
20220523224008 19 122 0.0 0.0 0.00 0.00 0.00 58 1021.0
20220523223907 19 120 6.4 0.0 0.00 0.00 0.00 59 1021.0
20220523223805 19 47 0.0 0.0 0.00 0.00 0.00 58 1021.1
20220523223702 19 55 1.6 0.0 0.00 0.00 0.00 58 1021.0
20220523223559 19 144 0.0 0.0 0.00 0.00 0.00 58 1021.1
20220523223459 19 144 4.8 0.0 0.00 0.00 0.00 59 1021.1
20220523223400 19 145 0.0 0.0 0.00 0.00 0.00 59 1021.3
20220523223259 19 145 4.8 0.0 0.00 0.00 0.00 59 1021.1
20220523223159 19 145 0.0 0.0 0.00 0.00 0.00 58 1021.0
20220523223059 19 145 3.2 0.0 0.00 0.00 0.00 58 1021.2
20220523222957 19 145 6.4 0.0 0.00 0.00 0.00 57 1021.2
20220523222858 19 145 4.8 0.0 0.00 0.00 0.00 58 1021.1
20220523222759 19 150 3.2 0.0 0.00 0.00 0.00 57 1021.2
20220523222658 19 147 6.4 0.0 0.00 0.00 0.00 58 1021.2
20220523222558 19 146 6.4 0.0 0.00 0.00 0.00 58 1021.2
20220523222457 19 146 0.0 0.0 0.00 0.00 0.00 58 1021.2
20220523222355 19 148 4.8 0.0 0.00 0.00 0.00 59 1021.3
20220523222255 19 152 4.8 0.0 0.00 0.00 0.00 58 1021.2
20220523222153 19 152 0.0 0.0 0.00 0.00 0.00 59 1021.1
20220523222054 19 187 1.6 0.0 0.00 0.00 0.00 60 1021.2
20220523221953 19 187 0.0 0.0 0.00 0.00 0.00 59 1021.2
20220523221852 19 187 0.0 0.0 0.00 0.00 0.00 59 1021.2
20220523221752 19 187 0.0 0.0 0.00 0.00 0.00 60 1021.0
20220523221654 19 189 0.0 0.0 0.00 0.00 0.00 59 1021.2
20220523221553 19 189 0.0 0.0 0.00 0.00 0.00 59 1021.1
20220523221455 19 195 0.0 0.0 0.00 0.00 0.00 59 1021.0
20220523221356 19 195 4.8 0.0 0.00 0.00 0.00 59 1021.2
20220523221253 18 195 0.0 0.0 0.00 0.00 0.00 58 1021.2
20220523221153 18 121 3.2 0.0 0.00 0.00 0.00 58 1021.2
20220523221054 18 121 1.6 0.0 0.00 0.00 0.00 58 1021.2
20220523220953 18 119 0.0 0.0 0.00 0.00 0.00 58 1021.1
20220523220851 18 104 3.2 0.0 0.00 0.00 0.00 58 1021.1
20220523220755 18 132 0.0 0.0 0.00 0.00 0.00 58 1021.1
20220523220654 18 133 3.2 0.0 0.00 0.00 0.00 57 1021.1
20220523220551 19 165 8.0 0.0 0.00 0.00 0.00 58 1021.3
20220523220451 19 167 1.6 0.0 0.00 0.00 0.00 57 1021.1
20220523220410 19 155 9.7 0.0 0.00 0.00 0.00 57 1021.2
20220523220309 19 138 9.7 0.0 0.00 0.00 0.00 57 1021.2
20220523220152 19 133 0.0 0.0 0.00 0.00 0.00 57 1021.1
20220523220052 19 134 11.3 0.0 0.00 0.00 0.00 56 1021.3
20220523215950 19 137 1.6 0.0 0.00 0.00 0.00 56 1021.0
20220523215852 19 137 0.0 0.0 0.00 0.00 0.00 56 1021.3
20220523215759 19 137 3.2 0.0 0.00 0.00 0.00 56 1021.2
20220523215700 19 155 11.3 0.0 0.00 0.00 0.00 56 1021.0
20220523215600 20 123 6.4 0.0 0.00 0.00 0.00 58 1021.2
20220523215503 19 155 0.0 0.0 0.00 0.00 0.00 58 1021.2
20220523215402 19 155 0.0 0.0 0.00 0.00 0.00 57 1021.4
20220523215300 19 155 0.0 0.0 0.00 0.00 0.00 57 1021.3
20220523215159 19 153 4.8 0.0 0.00 0.00 0.00 56 1021.4
20220523215059 19 117 6.4 0.0 0.00 0.00 0.00 57 1021.3
20220523214957 19 114 0.0 0.0 0.00 0.00 0.00 57 1021.3
20220523214855 19 114 0.0 0.0 0.00 0.00 0.00 57 1021.3
20220523214759 19 35 0.0 0.0 0.00 0.00 0.00 56 1021.3
20220523214658 20 73 6.4 0.0 0.00 0.00 0.00 58 1021.2
20220523214557 20 146 9.7 0.0 0.00 0.00 0.00 58 1021.0
20220523214456 20 165 6.4 0.0 0.00 0.00 0.00 58 1021.2
20220523214355 20 153 8.0 0.0 0.00 0.00 0.00 58 1021.0
20220523214253 20 154 6.4 0.0 0.00 0.00 0.00 57 1021.1
20220523214158 20 173 4.8 0.0 0.00 0.00 0.00 57 1021.2
20220523214055 20 154 6.4 0.0 0.00 0.00 0.00 56 1021.2
20220523213956 20 135 11.3 0.0 0.00 0.00 0.00 56 1021.1
20220523213856 20 154 6.4 0.0 0.00 0.00 0.00 57 1021.2
20220523213755 20 156 0.0 0.0 0.00 0.00 0.00 57 1021.2
20220523213655 20 20 3.2 0.0 0.00 0.00 0.00 57 1021.3
20220523213555 20 9 0.0 0.0 0.00 0.00 0.00 57 1021.3
20220523213457 20 9 0.0 0.0 0.00 0.00 0.00 58 1021.4
20220523213354 20 7 0.0 0.0 0.00 0.00 0.00 57 1021.2
20220523213249 20 12 9.7 0.0 0.00 0.00 0.00 57 1021.4
20220523213150 20 101 0.0 0.0 0.00 0.00 0.00 58 1021.4
20220523213109 20 101 0.0 0.0 0.00 0.00 0.00 57 1021.3
20220523213010 20 102 0.0 0.0 0.00 0.00 0.00 57 1021.4
20220523212852 19 113 0.0 0.0 0.00 0.00 0.00 58 1021.5
20220523212751 19 113 3.2 0.0 0.00 0.00 0.00 58 1021.4
20220523212709 19 41 0.0 0.0 0.00 0.00 0.00 59 1021.3
20220523212609 19 41 0.0 0.0 0.00 0.00 0.00 58 1021.3
20220523212507 19 41 0.0 0.0 0.00 0.00 0.00 58 1021.2
20220523212406 19 42 1.6 0.0 0.00 0.00 0.00 58 1021.3
20220523212306 19 41 1.6 0.0 0.00 0.00 0.00 58 1021.4
20220523212208 20 42 0.0 0.0 0.00 0.00 0.00 58 1021.3
20220523212108 20 42 3.2 0.0 0.00 0.00 0.00 57 1021.3
20220523212007 20 47 0.0 0.0 0.00 0.00 0.00 58 1021.3
20220523211905 20 47 0.0 0.0 0.00 0.00 0.00 57 1021.4
20220523211805 20 45 1.6 0.0 0.00 0.00 0.00 57 1021.2
20220523211702 20 71 3.2 0.0 0.00 0.00 0.00 57 1021.2
20220523211600 20 99 1.6 0.0 0.00 0.00 0.00 57 1021.3
20220523211504 20 117 3.2 0.0 0.00 0.00 0.00 58 1021.3
20220523211402 20 155 3.2 0.0 0.00 0.00 0.00 58 1021.3
20220523211259 20 134 3.2 0.0 0.00 0.00 0.00 59 1021.3
20220523211157 20 146 0.0 0.0 0.00 0.00 0.00 59 1021.2
20220523211054 20 29 1.6 0.0 0.00 0.00 0.00 59 1021.2
20220523210952 20 35 0.0 0.0 0.00 0.00 0.00 58 1021.4
20220523210856 20 35 0.0 0.0 0.00 0.00 0.00 58 1021.4
20220523210754 20 26 1.6 0.0 0.00 0.00 0.00 59 1021.5
20220523210653 20 11 1.6 0.0 0.00 0.00 0.00 59 1021.4
20220523210552 20 11 0.0 0.0 0.00 0.00 0.00 58 1021.3
20220523210451 20 67 3.2 0.0 0.00 0.00 0.00 59 1021.4
20220523210350 20 166 0.0 0.0 0.00 0.00 0.00 59 1021.5
20220523210250 19 166 0.0 0.0 0.00 0.00 0.00 59 1021.6
20220523210153 19 120 4.8 0.0 0.00 0.00 0.00 59 1021.6
20220523210053 19 36 0.0 0.0 0.00 0.00 0.00 59 1021.6
20220523205951 19 65 1.6 0.0 0.00 0.00 0.00 59 1021.5
20220523205908 19 71 1.6 0.0 0.00 0.00 0.00 59 1021.6
20220523205807 19 129 0.0 0.0 0.00 0.00 0.00 59 1021.7
20220523205706 19 5 1.6 0.0 0.00 0.00 0.00 59 1021.7
20220523205605 19 134 0.0 0.0 0.00 0.00 0.00 59 1021.7
20220523205509 19 135 3.2 0.0 0.00 0.00 0.00 59 1021.6
20220523205406 19 132 6.4 0.0 0.00 0.00 0.00 60 1021.8
20220523205305 19 145 0.0 0.0 0.00 0.00 0.00 59 1021.6
20220523205204 19 145 0.0 0.0 0.00 0.00 0.00 59 1021.7
20220523205105 19 147 6.4 0.0 0.00 0.00 0.00 60 1021.6
20220523205003 19 147 1.6 0.0 0.00 0.00 0.00 60 1021.7
20220523204908 19 147 0.0 0.0 0.00 0.00 0.00 59 1021.5
20220523204808 19 159 4.8 0.0 0.00 0.00 0.00 59 1021.7
20220523204708 19 142 8.0 0.0 0.00 0.00 0.00 59 1021.6
20220523204608 19 154 6.4 0.0 0.00 0.00 0.00 59 1021.5
20220523204506 19 154 8.0 0.0 0.00 0.00 0.00 59 1021.7
20220523204405 19 63 0.0 0.0 0.00 0.00 0.00 59 1021.5
20220523204305 19 62 1.6 0.0 0.00 0.00 0.00 59 1021.6
20220523204204 19 63 0.0 0.0 0.00 0.00 0.00 59 1021.6
20220523204103 19 47 6.4 0.0 0.00 0.00 0.00 59 1021.7
20220523204003 19 43 3.2 0.0 0.00 0.00 0.00 59 1021.7
20220523203900 19 42 0.0 0.0 0.00 0.00 0.00 58 1021.8
20220523203759 19 115 4.8 0.0 0.00 0.00 0.00 59 1021.8
20220523203659 19 118 3.2 0.0 0.00 0.00 0.00 59 1021.7
20220523203602 19 116 3.2 0.0 0.00 0.00 0.00 59 1021.9
20220523203501 19 116 0.0 0.0 0.00 0.00 0.00 59 1022.0
20220523203404 19 116 1.6 0.0 0.00 0.00 0.00 59 1021.9
20220523203259 19 33 0.0 0.0 0.00 0.00 0.00 59 1021.9
20220523203156 19 108 6.4 0.0 0.00 0.00 0.00 59 1022.0
20220523203053 19 145 6.4 0.0 0.00 0.00 0.00 58 1021.9
20220523202951 19 129 6.4 0.0 0.00 0.00 0.00 58 1021.9
20220523202853 19 134 11.3 0.0 0.00 0.00 0.00 59 1022.0
20220523202751 19 60 1.6 0.0 0.00 0.00 0.00 58 1022.0
20220523202650 19 60 0.0 0.0 0.00 0.00 0.00 58 1022.0
20220523202609 19 60 3.2 0.0 0.00 0.00 0.00 57 1022.1
20220523202508 19 59 6.4 0.0 0.00 0.00 0.00 58 1022.0
20220523202405 19 37 3.2 0.0 0.00 0.00 0.00 59 1022.1
20220523202248 19 32 0.0 0.0 0.00 0.00 0.00 58 1022.0
20220523202210 19 37 3.2 0.0 0.00 0.00 0.00 59 1022.0
20220523202108 19 2 3.2 0.0 0.00 0.00 0.00 59 1021.9
20220523202007 19 24 1.6 0.0 0.00 0.00 0.00 60 1022.0
20220523201904 19 174 0.0 0.0 0.00 0.00 0.00 60 1022.0
20220523201804 19 199 0.0 0.0 0.00 0.00 0.00 61 1021.9
20220523201702 19 199 4.8 0.0 0.00 0.00 0.00 61 1021.9
20220523201607 18 199 0.0 0.0 0.00 0.00 0.00 60 1022.0
20220523201506 18 191 3.2 0.0 0.00 0.00 0.00 60 1021.9
20220523201404 18 196 3.2 0.0 0.00 0.00 0.00 60 1021.9
20220523201303 18 196 0.0 0.0 0.00 0.00 0.00 59 1021.9
20220523201203 18 195 8.0 0.0 0.00 0.00 0.00 59 1022.0
20220523201101 18 144 11.3 0.0 0.00 0.00 0.00 59 1022.1
20220523200959 18 168 11.3 0.0 0.00 0.00 0.00 58 1022.0
20220523200903 18 134 1.6 0.0 0.00 0.00 0.00 58 1022.1
20220523200803 18 133 4.8 0.0 0.00 0.00 0.00 58 1021.9
20220523200703 19 133 6.4 0.0 0.00 0.00 0.00 58 1022.0
20220523200601 19 143 9.7 0.0 0.00 0.00 0.00 58 1022.0
20220523200459 19 143 14.5 0.0 0.00 0.00 0.00 58 1022.2
20220523200400 19 156 9.7 0.0 0.00 0.00 0.00 58 1022.1
20220523200305 19 93 6.4 0.0 0.00 0.00 0.00 59 1022.2
20220523200202 19 133 1.6 0.0 0.00 0.00 0.00 58 1022.1
20220523200102 19 146 9.7 0.0 0.00 0.00 0.00 57 1022.0
20220523200001 20 144 8.0 0.0 0.00 0.00 0.00 58 1022.1
20220523195901 20 84 4.8 0.0 0.00 0.00 0.00 58 1022.1
20220523195800 20 56 0.0 0.0 0.00 0.00 0.00 58 1022.0
20220523195657 20 127 0.0 0.0 0.00 0.00 0.00 58 1022.2
20220523195601 20 126 4.8 0.0 0.00 0.00 0.00 58 1022.0
20220523195502 20 149 9.7 0.0 0.00 0.00 0.00 57 1022.0
20220523195400 20 146 9.7 0.0 0.00 0.00 0.00 58 1022.0
20220523195256 20 87 3.2 0.0 0.00 0.00 0.00 59 1022.0
20220523195157 20 122 1.6 0.0 0.00 0.00 0.00 58 1022.0
20220523195056 20 122 0.0 0.0 0.00 0.00 0.00 58 1021.9
20220523194958 19 122 0.0 0.0 0.00 0.00 0.00 58 1021.9
20220523194858 19 122 0.0 0.0 0.00 0.00 0.00 57 1021.9
20220523194758 19 122 0.0 0.0 0.00 0.00 0.00 58 1022.0
20220523194655 19 122 0.0 0.0 0.00 0.00 0.00 56 1021.9
20220523194556 19 132 1.6 0.0 0.00 0.00 0.00 57 1022.0
20220523194452 19 132 0.0 0.0 0.00 0.00 0.00 56 1022.0
20220523194411 19 128 3.2 0.0 0.00 0.00 0.00 57 1021.9
20220523194253 19 120 1.6 0.0 0.00 0.00 0.00 58 1022.2
20220523194152 19 8 0.0 0.0 0.00 0.00 0.00 58 1021.9
20220523194112 19 8 0.0 0.0 0.00 0.00 0.00 57 1022.0
20220523194008 19 62 0.0 0.0 0.00 0.00 0.00 57 1022.0
20220523193906 19 63 0.0 0.0 0.00 0.00 0.00 56 1022.2
20220523193803 19 118 0.0 0.0 0.00 0.00 0.00 57 1022.0
20220523193703 19 118 0.0 0.0 0.00 0.00 0.00 57 1022.0
20220523193606 18 118 1.6 0.0 0.00 0.00 0.00 56 1022.0
20220523193506 18 118 3.2 0.0 0.00 0.00 0.00 56 1021.9
20220523193404 18 119 0.0 0.0 0.00 0.00 0.00 56 1022.0
20220523193305 18 119 3.2 0.0 0.00 0.00 0.00 56 1022.2
20220523193206 18 82 0.0 0.0 0.00 0.00 0.00 56 1022.2
20220523193106 18 82 1.6 0.0 0.00 0.00 0.00 56 1022.0
20220523193008 18 140 4.8 0.0 0.00 0.00 0.00 56 1022.0
20220523192908 18 147 4.8 0.0 0.00 0.00 0.00 57 1022.0
20220523192806 18 57 3.2 0.0 0.00 0.00 0.00 57 1022.0
20220523192704 18 2 9.7 0.0 0.00 0.00 0.00 58 1022.0
20220523192604 18 0 0.0 0.0 0.00 0.00 0.00 57 1022.0
20220523192505 18 0 0.0 0.0 0.00 0.00 0.00 56 1022.0
20220523192405 18 43 4.8 0.0 0.00 0.00 0.00 57 1022.0
20220523192310 18 44 4.8 0.0 0.00 0.00 0.00 57 1021.9
20220523192207 18 45 6.4 0.0 0.00 0.00 0.00 57 1022.0
20220523192106 18 1 3.2 0.0 0.00 0.00 0.00 57 1022.0
20220523192004 18 61 6.4 0.0 0.00 0.00 0.00 57 1022.0
20220523191904 18 23 4.8 0.0 0.00 0.00 0.00 57 1022.0
20220523191804 18 133 1.6 0.0 0.00 0.00 0.00 57 1022.0
20220523191709 18 142 3.2 0.0 0.00 0.00 0.00 56 1022.0
20220523191607 19 119 6.4 0.0 0.00 0.00 0.00 56 1022.2
20220523191504 19 68 1.6 0.0 0.00 0.00 0.00 56 1022.2
20220523191403 19 68 3.2 0.0 0.00 0.00 0.00 56 1022.0
20220523191304 19 88 4.8 0.0 0.00 0.00 0.00 56 1022.2
20220523191203 19 88 0.0 0.0 0.00 0.00 0.00 56 1022.1
20220523191100 19 109 3.2 0.0 0.00 0.00 0.00 57 1022.1
20220523191004 18 108 3.2 0.0 0.00 0.00 0.00 57 1022.3
20220523190902 18 169 0.0 0.0 0.00 0.00 0.00 57 1022.1
20220523190801 18 162 1.6 0.0 0.00 0.00 0.00 56 1022.2
20220523190703 18 57 4.8 0.0 0.00 0.00 0.00 56 1022.2
20220523190600 18 0 0.0 0.0 0.00 0.00 0.00 56 1022.3
20220523190500 18 0 0.0 0.0 0.00 0.00 0.00 55 1022.2
20220523190405 18 0 0.0 0.0 0.00 0.00 0.00 55 1022.0
20220523190306 19 0 4.8 0.0 0.00 0.00 0.00 55 1022.0
20220523190205 19 1 3.2 0.0 0.00 0.00 0.00 55 1022.1
20220523190108 19 8 12.9 0.0 0.00 0.00 0.00 56 1022.1
20220523190005 19 27 0.0 0.0 0.00 0.00 0.00 56 1022.0
20220523185904 19 28 3.2 0.0 0.00 0.00 0.00 56 1022.0
20220523185803 19 111 1.6 0.0 0.00 0.00 0.00 56 1022.1
20220523185706 18 51 0.0 0.0 0.00 0.00 0.00 56 1022.1
20220523185604 18 91 0.0 0.0 0.00 0.00 0.00 55 1022.0
20220523185504 18 45 3.2 0.0 0.00 0.00 0.00 56 1022.0
20220523185405 18 47 0.0 0.0 0.00 0.00 0.00 56 1022.1
20220523185303 18 99 6.4 0.0 0.00 0.00 0.00 57 1022.2
20220523185201 18 106 0.0 0.0 0.00 0.00 0.00 57 1022.1
20220523185102 18 105 0.0 0.0 0.00 0.00 0.00 57 1022.3
20220523185000 18 106 3.2 0.0 0.00 0.00 0.00 56 1022.0
20220523184859 18 121 8.0 0.0 0.00 0.00 0.00 56 1022.0
20220523184755 18 31 0.0 0.0 0.00 0.00 0.00 57 1022.2
20220523184653 18 35 12.9 0.0 0.00 0.00 0.00 57 1022.2
20220523184551 18 118 8.0 0.0 0.00 0.00 0.00 56 1022.0
20220523184449 18 150 9.7 0.0 0.00 0.00 0.00 56 1022.0
20220523184351 18 65 0.0 0.0 0.00 0.00 0.00 56 1022.0
20220523184253 18 354 6.4 0.0 0.00 0.00 0.00 56 1021.9
20220523184150 18 350 8.0 0.0 0.00 0.00 0.00 56 1021.9
20220523184050 18 15 1.6 0.0 0.00 0.00 0.00 57 1022.1
20220523183949 18 16 1.6 0.0 0.00 0.00 0.00 56 1022.1
20220523183907 18 16 0.0 0.0 0.00 0.00 0.00 56 1022.1
20220523183807 18 16 0.0 0.0 0.00 0.00 0.00 56 1022.2
20220523183708 18 16 1.6 0.0 0.00 0.00 0.00 56 1022.2
20220523183607 18 16 3.2 0.0 0.00 0.00 0.00 57 1022.2
20220523183506 18 16 1.6 0.0 0.00 0.00 0.00 56 1022.2
20220523183405 18 30 1.6 0.0 0.00 0.00 0.00 55 1022.2
20220523183300 18 33 9.7 0.0 0.00 0.00 0.00 56 1022.3
20220523183200 18 353 4.8 0.0 0.00 0.00 0.00 56 1022.2
20220523183104 18 115 0.0 0.0 0.00 0.00 0.00 56 1022.3
20220523183003 18 89 1.6 0.0 0.00 0.00 0.00 55 1022.2
20220523182902 18 106 4.8 0.0 0.00 0.00 0.00 55 1022.1
20220523182801 18 153 8.0 0.0 0.00 0.00 0.00 56 1022.3
20220523182659 18 152 3.2 0.0 0.00 0.00 0.00 56 1022.2
20220523182601 18 155 0.0 0.0 0.00 0.00 0.00 56 1022.3
20220523182457 18 162 3.2 0.0 0.00 0.00 0.00 56 1022.4
20220523182401 18 93 3.2 0.0 0.00 0.00 0.00 55 1022.5
20220523182302 18 111 3.2 0.0 0.00 0.00 0.00 55 1022.4
20220523182158 18 44 1.6 0.0 0.00 0.00 0.00 55 1022.4
20220523182058 18 30 4.8 0.0 0.00 0.00 0.00 56 1022.5
20220523181955 18 46 0.0 0.0 0.00 0.00 0.00 56 1022.5
20220523181854 18 17 1.6 0.0 0.00 0.00 0.00 56 1022.3
20220523181755 18 28 6.4 0.0 0.00 0.00 0.00 57 1022.5
20220523181655 18 348 3.2 0.0 0.00 0.00 0.00 57 1022.5
20220523181553 18 151 9.7 0.0 0.00 0.00 0.00 55 1022.5
20220523181451 18 52 4.8 0.0 0.00 0.00 0.00 56 1022.4
20220523181410 18 157 0.0 0.0 0.00 0.00 0.00 55 1022.6
20220523181309 18 77 1.6 0.0 0.00 0.00 0.00 55 1022.5
20220523181206 18 81 4.8 0.0 0.00 0.00 0.00 55 1022.6
20220523181052 18 115 3.2 0.0 0.00 0.00 0.00 55 1022.6
20220523180950 18 92 1.6 0.0 0.00 0.00 0.00 56 1022.6
20220523180911 18 8 0.0 0.0 0.00 0.00 0.00 55 1022.5
20220523180807 18 12 6.4 0.0 0.00 0.00 0.00 55 1022.6
20220523180706 18 124 1.6 0.0 0.00 0.00 0.00 54 1022.6
20220523180606 18 160 11.3 0.0 0.00 0.00 0.00 55 1022.6
20220523180506 18 0 0.0 0.0 0.00 0.00 0.00 54 1022.6
20220523180408 18 0 0.0 0.0 0.00 0.00 0.00 54 1022.6
20220523180310 18 32 1.6 0.0 0.00 0.00 0.00 55 1022.7
20220523180204 18 59 4.8 0.0 0.00 0.00 0.00 54 1022.7
20220523180104 18 27 3.2 0.0 0.00 0.00 0.00 54 1022.7
20220523180003 18 2 3.2 0.0 0.00 0.00 0.00 55 1022.7
20220523175902 18 2 4.8 0.0 0.00 0.00 0.00 56 1022.6
20220523175805 18 127 0.0 0.0 0.00 0.00 0.00 56 1022.6
20220523175704 18 132 8.0 0.0 0.00 0.00 0.00 56 1022.6
20220523175605 18 132 3.2 0.0 0.00 0.00 0.00 56 1022.7
20220523175503 18 131 1.6 0.0 0.00 0.00 0.00 56 1022.6
20220523175402 18 49 3.2 0.0 0.00 0.00 0.00 55 1022.6
20220523175259 18 36 8.0 0.0 0.00 0.00 0.00 55 1022.7
20220523175155 18 78 3.2 0.0 0.00 0.00 0.00 56 1022.7
20220523175059 18 118 8.0 0.0 0.00 0.00 0.00 55 1022.6
20220523174959 18 39 0.0 0.0 0.00 0.00 0.00 55 1022.7
20220523174856 18 37 3.2 0.0 0.00 0.00 0.00 55 1022.5
20220523174752 18 354 4.8 0.0 0.00 0.00 0.00 55 1022.6
20220523174653 18 4 4.8 0.0 0.00 0.00 0.00 55 1022.6
20220523174554 18 359 4.8 0.0 0.00 0.00 0.00 56 1022.6
20220523174456 18 121 6.4 0.0 0.00 0.00 0.00 56 1022.6
20220523174353 18 0 3.2 0.0 0.00 0.00 0.00 55 1022.7
20220523174253 18 24 6.4 0.0 0.00 0.00 0.00 56 1022.7
20220523174151 18 359 3.2 0.0 0.00 0.00 0.00 56 1022.8
20220523174052 18 61 3.2 0.0 0.00 0.00 0.00 56 1022.7
20220523173950 18 76 4.8 0.0 0.00 0.00 0.00 55 1022.7
20220523173850 18 103 0.0 0.0 0.00 0.00 0.00 56 1022.8
20220523173755 18 26 0.0 0.0 0.00 0.00 0.00 55 1022.8
20220523173654 18 3 8.0 0.0 0.00 0.00 0.00 56 1022.7
20220523173551 18 40 3.2 0.0 0.00 0.00 0.00 55 1022.6
20220523173451 18 38 0.0 0.0 0.00 0.00 0.00 55 1022.7
20220523173409 18 34 6.4 0.0 0.00 0.00 0.00 56 1022.8
20220523173307 18 52 0.0 0.0 0.00 0.00 0.00 56 1022.9
20220523173204 18 53 4.8 0.0 0.00 0.00 0.00 55 1022.8
20220523173107 18 14 6.4 0.0 0.00 0.00 0.00 56 1022.9
20220523173006 18 37 1.6 0.0 0.00 0.00 0.00 56 1023.0
20220523172905 18 100 6.4 0.0 0.00 0.00 0.00 56 1022.8
20220523172803 18 15 3.2 0.0 0.00 0.00 0.00 56 1022.8
20220523172703 18 123 11.3 0.0 0.00 0.00 0.00 56 1022.8
20220523172602 18 106 4.8 0.0 0.00 0.00 0.00 57 1022.8
20220523172505 18 118 1.6 0.0 0.00 0.00 0.00 59 1022.8
20220523172403 18 36 3.2 0.0 0.00 0.00 0.00 59 1023.0
20220523172300 18 33 0.0 0.0 0.00 0.00 0.00 59 1023.0
20220523172158 18 52 17.7 0.0 0.00 0.00 0.00 58 1023.0
20220523172057 18 38 0.0 0.0 0.00 0.00 0.00 58 1023.0
20220523171954 18 246 1.6 0.0 0.00 0.00 0.00 58 1023.0
20220523171853 18 4 9.7 0.0 0.00 0.00 0.00 59 1022.9
20220523171756 18 65 4.8 0.0 0.00 0.00 0.00 60 1023.0
20220523171655 18 107 0.0 0.0 0.00 0.00 0.00 58 1023.0
20220523171554 18 108 0.0 0.0 0.00 0.00 0.00 58 1022.9
20220523171454 18 151 16.1 0.0 0.00 0.00 0.00 58 1023.0
20220523171354 18 138 8.0 0.0 0.00 0.00 0.00 59 1023.0
20220523171255 18 135 6.4 0.0 0.00 0.00 0.00 59 1023.0
20220523171200 18 100 6.4 0.0 0.00 0.00 0.00 58 1023.2
20220523171058 18 118 9.7 0.0 0.00 0.00 0.00 57 1023.1
20220523170956 18 0 6.4 0.0 0.00 0.00 0.00 57 1023.1
20220523170856 18 24 3.2 0.0 0.00 0.00 0.00 57 1023.1
20220523170755 18 24 1.6 0.0 0.00 0.00 0.00 57 1023.2
20220523170653 18 33 6.4 0.0 0.00 0.00 0.00 57 1023.1
20220523170555 18 28 3.2 0.0 0.00 0.00 0.00 57 1023.2
20220523170457 18 21 11.3 0.0 0.00 0.00 0.00 58 1023.2
20220523170356 18 97 8.0 0.0 0.00 0.00 0.00 59 1023.2
20220523170257 18 3 4.8 0.0 0.00 0.00 0.00 58 1023.3
20220523170154 18 0 6.4 0.0 0.00 0.00 0.00 58 1023.4
20220523170053 18 9 4.8 0.0 0.00 0.00 0.00 58 1023.3
20220523165954 18 53 1.6 0.0 0.00 0.00 0.00 58 1023.5
20220523165855 18 55 3.2 0.0 0.00 0.00 0.00 57 1023.6
20220523165753 18 118 6.4 0.0 0.00 0.00 0.00 57 1023.4
20220523165654 18 131 9.7 0.0 0.00 0.00 0.00 57 1023.5
20220523165551 18 135 11.3 0.0 0.00 0.00 0.00 58 1023.7
20220523165511 18 94 3.2 0.0 0.00 0.00 0.00 57 1023.7
20220523165410 18 113 1.6 0.0 0.00 0.00 0.00 56 1023.6
20220523165307 18 109 3.2 0.0 0.00 0.00 0.00 57 1023.6
20220523165151 18 114 9.7 0.0 0.00 0.00 0.00 57 1023.6
20220523165050 18 112 9.7 0.0 0.00 0.00 0.00 58 1023.6
20220523164949 18 143 9.7 0.0 0.00 0.00 0.00 57 1023.7
20220523164909 18 118 3.2 0.0 0.00 0.00 0.00 57 1023.7
20220523164749 18 0 3.2 0.0 0.00 0.00 0.00 56 1023.7
20220523164650 18 8 16.1 0.0 0.00 0.00 0.00 56 1023.8
20220523164553 18 11 14.5 0.0 0.00 0.00 0.00 56 1023.8
20220523164451 18 7 0.0 0.0 0.00 0.00 0.00 56 1023.7
20220523164352 18 7 1.6 0.0 0.00 0.00 0.00 56 1023.8
20220523164309 18 7 0.0 0.0 0.00 0.00 0.00 57 1023.9
20220523164208 18 8 4.8 0.0 0.00 0.00 0.00 57 1023.9
20220523164106 18 37 3.2 0.0 0.00 0.00 0.00 58 1023.8
20220523164004 18 86 0.0 0.0 0.00 0.00 0.00 58 1023.9
20220523163909 18 87 4.8 0.0 0.00 0.00 0.00 57 1023.9
20220523163748 18 109 0.0 0.0 0.00 0.00 0.00 57 1024.0
20220523163708 18 109 1.6 0.0 0.00 0.00 0.00 56 1023.9
20220523163608 18 86 3.2 0.0 0.00 0.00 0.00 57 1024.0
20220523163507 18 48 3.2 0.0 0.00 0.00 0.00 57 1024.0
20220523163405 18 17 3.2 0.0 0.00 0.00 0.00 57 1024.0
20220523163249 18 71 3.2 0.0 0.00 0.00 0.00 57 1023.9
20220523163210 18 85 1.6 0.0 0.00 0.00 0.00 57 1023.9
20220523163108 18 140 22.5 0.0 0.00 0.00 0.00 57 1024.0
20220523163009 18 100 9.7 0.0 0.00 0.00 0.00 58 1024.0
20220523162907 18 75 1.6 0.0 0.00 0.00 0.00 57 1023.9
20220523162809 18 139 11.3 0.0 0.00 0.00 0.00 56 1024.0
20220523162708 18 131 11.3 0.0 0.00 0.00 0.00 57 1023.9
20220523162551 18 59 1.6 0.0 0.00 0.00 0.00 58 1024.0
20220523162451 18 87 4.8 0.0 0.00 0.00 0.00 58 1024.0
20220523162351 18 9 1.6 0.0 0.00 0.00 0.00 58 1023.9
20220523162250 18 98 1.6 0.0 0.00 0.00 0.00 58 1024.0
20220523162149 17 130 3.2 0.0 0.00 0.00 0.00 58 1023.9
20220523162049 17 124 4.8 0.0 0.00 0.00 0.00 58 1024.0
20220523161953 17 116 3.2 0.0 0.00 0.00 0.00 58 1024.1
20220523161853 17 22 0.0 0.0 0.00 0.00 0.00 58 1024.0
20220523161754 17 22 6.4 0.0 0.00 0.00 0.00 58 1024.0
20220523161653 17 50 0.0 0.0 0.00 0.00 0.00 57 1024.0
20220523161550 17 51 4.8 0.0 0.00 0.00 0.00 57 1024.0
20220523161509 17 137 6.4 0.0 0.00 0.00 0.00 57 1024.0
20220523161406 17 115 12.9 0.0 0.00 0.00 0.00 57 1024.0
20220523161309 17 85 6.4 0.0 0.00 0.00 0.00 57 1024.1
20220523161208 17 159 4.8 0.0 0.00 0.00 0.00 57 1024.0
20220523161106 17 112 9.7 0.0 0.00 0.00 0.00 57 1024.2
20220523161005 17 47 1.6 0.0 0.00 0.00 0.00 58 1024.1
20220523160905 17 355 3.2 0.0 0.00 0.00 0.00 57 1024.2
20220523160804 17 128 0.0 0.0 0.00 0.00 0.00 57 1024.3
20220523160702 17 32 0.0 0.0 0.00 0.00 0.00 57 1024.2
20220523160606 17 32 0.0 0.0 0.00 0.00 0.00 57 1024.3
20220523160503 17 86 4.8 0.0 0.00 0.00 0.00 58 1024.3
20220523160403 17 9 4.8 0.0 0.00 0.00 0.00 59 1024.2
20220523160301 17 129 4.8 0.0 0.00 0.00 0.00 59 1024.4
20220523160201 17 0 0.0 0.0 0.00 0.00 0.00 58 1024.4
20220523160102 17 5 3.2 0.0 0.00 0.00 0.00 58 1024.3
20220523160006 17 72 0.0 0.0 0.00 0.00 0.00 58 1024.4
20220523155907 17 104 3.2 0.0 0.00 0.00 0.00 58 1024.4
20220523155804 17 110 3.2 0.0 0.00 0.00 0.00 58 1024.4
20220523155703 17 128 4.8 0.0 0.00 0.00 0.00 58 1024.5
20220523155602 17 132 0.0 0.0 0.00 0.00 0.00 57 1024.4
20220523155501 17 37 3.2 0.0 0.00 0.00 0.00 57 1024.3
20220523155403 17 145 8.0 0.0 0.00 0.00 0.00 57 1024.5
20220523155306 17 123 6.4 0.0 0.00 0.00 0.00 57 1024.5
20220523155205 17 81 8.0 0.0 0.00 0.00 0.00 58 1024.4
20220523155104 17 70 3.2 0.0 0.00 0.00 0.00 57 1024.6
20220523155005 17 46 0.0 0.0 0.00 0.00 0.00 57 1024.5
20220523154903 17 49 9.7 0.0 0.00 0.00 0.00 58 1024.7
20220523154802 17 37 6.4 0.0 0.00 0.00 0.00 58 1024.5
20220523154706 17 72 4.8 0.0 0.00 0.00 0.00 58 1024.6
20220523154604 17 34 3.2 0.0 0.00 0.00 0.00 57 1024.6
20220523154503 17 61 6.4 0.0 0.00 0.00 0.00 58 1024.5
20220523154404 17 27 4.8 0.0 0.00 0.00 0.00 58 1024.6
20220523154304 17 83 4.8 0.0 0.00 0.00 0.00 58 1024.7
20220523154203 17 135 4.8 0.0 0.00 0.00 0.00 59 1024.6
20220523154105 17 33 0.0 0.0 0.00 0.00 0.00 59 1024.5
20220523154007 17 33 0.0 0.0 0.00 0.00 0.00 60 1024.5
20220523153905 17 33 0.0 0.0 0.00 0.00 0.00 60 1024.6
20220523153806 17 67 0.0 0.0 0.00 0.00 0.00 58 1024.7
20220523153705 17 151 11.3 0.0 0.00 0.00 0.00 59 1024.7
20220523153602 17 104 1.6 0.0 0.00 0.00 0.00 59 1024.6
20220523153502 17 37 0.0 0.0 0.00 0.00 0.00 58 1024.7
20220523153406 17 122 8.0 0.0 0.00 0.00 0.00 59 1024.6
20220523153305 17 39 4.8 0.0 0.00 0.00 0.00 60 1024.6
20220523153204 17 72 3.2 0.0 0.00 0.00 0.00 59 1024.6
20220523153102 17 27 0.0 0.0 0.00 0.00 0.00 59 1024.6
20220523152959 17 18 3.2 0.0 0.00 0.00 0.00 59 1024.5
20220523152858 17 67 0.0 0.0 0.00 0.00 0.00 58 1024.6
20220523152758 17 68 4.8 0.0 0.00 0.00 0.00 58 1024.7
20220523152659 17 356 11.3 0.0 0.00 0.00 0.00 58 1024.6
20220523152600 17 16 4.8 0.0 0.00 0.00 0.00 58 1024.7
20220523152458 17 7 8.0 0.0 0.00 0.00 0.00 59 1024.6
20220523152359 17 3 0.0 0.0 0.00 0.00 0.00 58 1024.6
20220523152258 17 16 4.8 0.0 0.00 0.00 0.00 59 1024.5
20220523152156 17 63 12.9 0.0 0.00 0.00 0.00 59 1024.6
20220523152100 17 35 4.8 0.0 0.00 0.00 0.00 59 1024.6
20220523152000 17 57 0.0 0.0 0.00 0.00 0.00 58 1024.6
20220523151856 17 23 3.2 0.0 0.00 0.00 0.00 59 1024.6
20220523151755 17 10 4.8 0.0 0.00 0.00 0.00 60 1024.8
20220523151653 17 49 8.0 0.0 0.00 0.00 0.00 60 1024.7
20220523151611 17 0 0.0 0.0 0.00 0.00 0.00 59 1024.7
20220523151509 17 0 1.6 0.0 0.00 0.00 0.00 59 1024.7
20220523151353 17 121 3.2 0.0 0.00 0.00 0.00 59 1024.6
20220523151253 17 16 0.0 0.0 0.00 0.00 0.00 59 1024.6
20220523151152 17 49 6.4 0.0 0.00 0.00 0.00 60 1024.7
20220523151052 17 20 1.6 0.0 0.00 0.00 0.00 59 1024.6
20220523151011 17 33 8.0 0.0 0.00 0.00 0.00 59 1024.6
20220523150909 17 34 4.8 0.0 0.00 0.00 0.00 59 1024.6
20220523150752 17 12 11.3 0.0 0.00 0.00 0.00 59 1024.7
20220523150650 17 2 6.4 0.0 0.00 0.00 0.00 60 1024.5
20220523150611 17 26 0.0 0.0 0.00 0.00 0.00 60 1024.6
20220523150509 17 24 0.0 0.0 0.00 0.00 0.00 60 1024.5
20220523150406 17 72 3.2 0.0 0.00 0.00 0.00 61 1024.5
20220523150306 17 73 0.0 0.0 0.00 0.00 0.00 60 1024.6
20220523150205 17 146 3.2 0.0 0.00 0.00 0.00 60 1024.6
20220523150108 16 58 0.0 0.0 0.00 0.00 0.00 60 1024.7
20220523150007 16 57 3.2 0.0 0.00 0.00 0.00 61 1024.5
20220523145905 16 137 0.0 0.0 0.00 0.00 0.00 60 1024.7
20220523145805 16 137 0.0 0.0 0.00 0.00 0.00 60 1024.7
20220523145703 16 138 8.0 0.0 0.00 0.00 0.00 60 1024.7
20220523145602 16 118 9.7 0.0 0.00 0.00 0.00 61 1024.8
20220523145502 16 1 0.0 0.0 0.00 0.00 0.00 61 1024.6
20220523145406 16 121 0.0 0.0 0.00 0.00 0.00 60 1024.7
20220523145305 16 121 0.0 0.0 0.00 0.00 0.00 60 1024.7
20220523145204 16 121 0.0 0.0 0.00 0.00 0.00 60 1024.7
20220523145102 16 124 3.2 0.0 0.00 0.00 0.00 60 1024.7
20220523145003 16 129 6.4 0.0 0.00 0.00 0.00 61 1024.8
20220523144900 16 150 1.6 0.0 0.00 0.00 0.00 62 1024.6
20220523144804 16 137 0.0 0.0 0.00 0.00 0.00 61 1024.8
20220523144706 16 137 1.6 0.0 0.00 0.00 0.00 61 1024.7
20220523144605 16 137 0.0 0.0 0.00 0.00 0.00 61 1024.6
20220523144503 16 130 6.4 0.0 0.00 0.00 0.00 60 1024.7
20220523144405 16 101 0.0 0.0 0.00 0.00 0.00 61 1024.8
20220523144304 16 71 0.0 0.0 0.00 0.00 0.00 60 1024.7
20220523144202 16 73 0.0 0.0 0.00 0.00 0.00 60 1024.9
20220523144105 16 152 0.0 0.0 0.00 0.00 0.00 60 1024.9
20220523144007 16 36 1.6 0.0 0.00 0.00 0.00 60 1024.7
20220523143906 16 23 0.0 0.0 0.00 0.00 0.00 60 1024.8
20220523143804 16 132 4.8 0.0 0.00 0.00 0.00 60 1025.1
20220523143703 16 114 12.9 0.0 0.00 0.00 0.00 61 1024.9
20220523143601 16 134 11.3 0.0 0.00 0.00 0.00 61 1025.0
20220523143505 16 37 6.4 0.0 0.00 0.00 0.00 63 1024.8
20220523143402 16 148 0.0 0.0 0.00 0.00 0.00 62 1024.9
20220523143300 16 147 0.0 0.0 0.00 0.00 0.00 62 1024.9
20220523143202 16 9 3.2 0.0 0.00 0.00 0.00 62 1024.9
20220523143102 16 34 6.4 0.0 0.00 0.00 0.00 62 1025.0
20220523143000 16 37 0.0 0.0 0.00 0.00 0.00 62 1025.1
20220523142859 16 1 0.0 0.0 0.00 0.00 0.00 63 1025.1
20220523142804 16 97 4.8 0.0 0.00 0.00 0.00 63 1025.0
20220523142703 16 5 0.0 0.0 0.00 0.00 0.00 63 1024.9
20220523142604 16 42 6.4 0.0 0.00 0.00 0.00 64 1025.0
20220523142500 16 134 0.0 0.0 0.00 0.00 0.00 64 1025.0
20220523142358 16 132 8.0 0.0 0.00 0.00 0.00 64 1024.9
20220523142258 16 135 0.0 0.0 0.00 0.00 0.00 64 1025.1
20220523142201 15 138 1.6 0.0 0.00 0.00 0.00 64 1025.0
20220523142101 15 156 0.0 0.0 0.00 0.00 0.00 64 1024.9
20220523142003 15 158 0.0 0.0 0.00 0.00 0.00 64 1024.9
20220523141859 15 152 4.8 0.0 0.00 0.00 0.00 64 1024.8
20220523141758 15 134 3.2 0.0 0.00 0.00 0.00 64 1024.9
20220523141659 15 163 8.0 0.0 0.00 0.00 0.00 64 1024.9
20220523141557 15 125 1.6 0.0 0.00 0.00 0.00 64 1024.8
20220523141501 15 147 3.2 0.0 0.00 0.00 0.00 64 1024.8
20220523141401 15 138 9.7 0.0 0.00 0.00 0.00 64 1024.9
20220523141259 15 78 0.0 0.0 0.00 0.00 0.00 64 1025.0
20220523141156 15 0 0.0 0.0 0.00 0.00 0.00 64 1025.0
20220523141056 15 80 0.0 0.0 0.00 0.00 0.00 64 1025.0
20220523140954 15 119 9.7 0.0 0.00 0.00 0.00 65 1025.0
20220523140857 15 144 3.2 0.0 0.00 0.00 0.00 66 1024.9
20220523140756 15 60 0.0 0.0 0.00 0.00 0.00 66 1025.0
20220523140652 15 60 0.0 0.0 0.00 0.00 0.00 66 1025.1
20220523140611 15 61 0.0 0.0 0.00 0.00 0.00 66 1025.0
20220523140509 15 115 1.6 0.0 0.00 0.00 0.00 66 1025.1
20220523140407 15 115 1.6 0.0 0.00 0.00 0.00 66 1025.2
20220523140304 15 56 0.0 0.0 0.00 0.00 0.00 66 1025.0
20220523140204 15 52 0.0 0.0 0.00 0.00 0.00 66 1025.0
20220523140102 15 52 0.0 0.0 0.00 0.00 0.00 66 1025.2
20220523135958 15 53 0.0 0.0 0.00 0.00 0.00 66 1025.0
20220523135857 15 39 0.0 0.0 0.00 0.00 0.00 66 1025.1
20220523135754 15 38 0.0 0.0 0.00 0.00 0.00 66 1025.1
20220523135653 15 42 0.0 0.0 0.00 0.00 0.00 66 1025.1
20220523135611 15 47 0.0 0.0 0.00 0.00 0.00 66 1025.0
20220523135453 15 37 0.0 0.0 0.00 0.00 0.00 67 1025.0
20220523135352 15 18 0.0 0.0 0.00 0.00 0.00 67 1025.0
20220523135310 15 21 3.2 0.0 0.00 0.00 0.00 67 1025.0
20220523135208 15 25 0.0 0.0 0.00 0.00 0.00 68 1025.0
20220523135107 15 25 3.2 0.0 0.00 0.00 0.00 68 1024.9
20220523135004 15 116 0.0 0.0 0.00 0.00 0.00 68 1025.1
20220523134902 15 34 0.0 0.0 0.00 0.00 0.00 68 1024.9
20220523134808 15 34 4.8 0.0 0.00 0.00 0.00 68 1024.9
20220523134705 15 35 0.0 0.0 0.00 0.00 0.00 68 1025.0
20220523134607 14 35 0.0 0.0 0.00 0.00 0.00 68 1024.9
20220523134506 14 35 0.0 0.0 0.00 0.00 0.00 68 1025.0
20220523134404 14 36 0.0 0.0 0.00 0.00 0.00 68 1025.0
20220523134304 14 103 0.0 0.0 0.00 0.00 0.00 69 1025.1
20220523134206 14 71 0.0 0.0 0.00 0.00 0.00 69 1025.0
20220523134105 14 71 0.0 0.0 0.00 0.00 0.00 69 1025.0
20220523134006 14 125 4.8 0.0 0.00 0.00 0.00 69 1025.0
20220523133904 14 105 0.0 0.0 0.00 0.00 0.00 69 1025.0
20220523133803 14 105 0.0 0.0 0.00 0.00 0.00 69 1024.9
20220523133701 14 11 3.2 0.0 0.00 0.00 0.00 69 1024.9
20220523133603 14 0 0.0 0.0 0.00 0.00 0.00 69 1025.0
20220523133503 14 8 3.2 0.0 0.00 0.00 0.00 69 1024.9
20220523133401 14 154 0.0 0.0 0.00 0.00 0.00 69 1024.9
20220523133302 14 154 1.6 0.0 0.00 0.00 0.00 69 1025.0
20220523133201 14 152 0.0 0.0 0.00 0.00 0.00 69 1025.0
20220523133059 14 152 0.0 0.0 0.00 0.00 0.00 69 1025.0
20220523132958 14 11 0.0 0.0 0.00 0.00 0.00 69 1024.9
20220523132902 13 11 0.0 0.0 0.00 0.00 0.00 70 1024.9
20220523132800 13 11 0.0 0.0 0.00 0.00 0.00 70 1024.9
20220523132659 13 39 11.3 0.0 0.00 0.00 0.00 70 1025.0
20220523132556 13 30 3.2 0.0 0.00 0.00 0.00 70 1024.9
20220523132455 13 89 4.8 0.0 0.00 0.00 0.00 70 1024.9
20220523132354 13 61 3.2 0.0 0.00 0.00 0.00 71 1024.9
20220523132254 13 49 0.0 0.0 0.00 0.00 0.00 70 1025.0
20220523132156 13 49 0.0 0.0 0.00 0.00 0.00 71 1024.9
20220523132055 13 49 0.0 0.0 0.00 0.00 0.00 70 1025.0
20220523131954 13 49 0.0 0.0 0.00 0.00 0.00 70 1025.0
20220523131854 13 50 0.0 0.0 0.00 0.00 0.00 71 1024.9
20220523131753 13 71 1.6 0.0 0.00 0.00 0.00 70 1025.1
20220523131652 13 33 0.0 0.0 0.00 0.00 0.00 71 1024.9
20220523131555 13 14 3.2 0.0 0.00 0.00 0.00 71 1025.0
20220523131455 13 44 0.0 0.0 0.00 0.00 0.00 72 1025.0
20220523131354 13 44 0.0 0.0 0.00 0.00 0.00 72 1025.0
20220523131250 13 44 0.0 0.0 0.00 0.00 0.00 71 1024.8
20220523131149 13 70 6.4 0.0 0.00 0.00 0.00 72 1024.9
20220523131108 13 95 0.0 0.0 0.00 0.00 0.00 72 1024.9
20220523131009 13 107 8.0 0.0 0.00 0.00 0.00 72 1024.8
20220523130850 13 111 0.0 0.0 0.00 0.00 0.00 73 1025.1
20220523130811 13 110 0.0 0.0 0.00 0.00 0.00 73 1025.0
20220523130709 13 53 3.2 0.0 0.00 0.00 0.00 73 1025.1
20220523130607 13 54 0.0 0.0 0.00 0.00 0.00 73 1025.0
20220523130507 13 54 0.0 0.0 0.00 0.00 0.00 73 1025.2
20220523130407 13 54 1.6 0.0 0.00 0.00 0.00 74 1025.0
20220523130305 13 64 9.7 0.0 0.00 0.00 0.00 75 1025.1
20220523130206 13 93 6.4 0.0 0.00 0.00 0.00 76 1025.1
20220523130108 13 6 0.0 0.0 0.00 0.00 0.00 76 1025.1
20220523130008 13 6 0.0 0.0 0.00 0.00 0.00 76 1025.0
20220523125905 13 3 0.0 0.0 0.00 0.00 0.00 76 1025.0
20220523125803 13 19 4.8 0.0 0.00 0.00 0.00 77 1025.0
20220523125701 13 117 0.0 0.0 0.00 0.00 0.00 77 1025.1
20220523125604 13 114 1.6 0.0 0.00 0.00 0.00 77 1025.1
20220523125502 13 95 0.0 0.0 0.00 0.00 0.00 78 1025.1
20220523125403 13 109 0.0 0.0 0.00 0.00 0.00 78 1025.1
20220523125300 13 109 3.2 0.0 0.00 0.00 0.00 78 1025.0
20220523125201 12 36 0.0 0.0 0.00 0.00 0.00 79 1025.0
20220523125059 12 35 1.6 0.0 0.00 0.00 0.00 80 1024.9
20220523124956 12 11 0.0 0.0 0.00 0.00 0.00 80 1025.2
20220523124900 12 7 0.0 0.0 0.00 0.00 0.00 80 1024.9
20220523124759 12 43 4.8 0.0 0.00 0.00 0.00 81 1025.1
20220523124656 12 66 0.0 0.0 0.00 0.00 0.00 82 1025.1
20220523124558 12 87 4.8 0.0 0.00 0.00 0.00 83 1024.9
20220523124456 12 112 0.0 0.0 0.00 0.00 0.00 84 1025.0
20220523124353 12 44 0.0 0.0 0.00 0.00 0.00 84 1025.1
20220523124256 12 44 0.0 0.0 0.00 0.00 0.00 84 1025.1
20220523124154 12 127 0.0 0.0 0.00 0.00 0.00 84 1025.0
20220523124053 12 16 0.0 0.0 0.00 0.00 0.00 85 1025.0
20220523123952 12 15 0.0 0.0 0.00 0.00 0.00 85 1025.0
20220523123851 12 18 8.0 0.0 0.00 0.00 0.00 86 1025.2
20220523123751 12 26 3.2 0.0 0.00 0.00 0.00 86 1025.0
20220523123710 12 24 0.0 0.0 0.00 0.00 0.00 86 1025.0
20220523123551 11 24 0.0 0.0 0.00 0.00 0.00 88 1025.1
20220523123510 11 24 0.0 0.0 0.00 0.00 0.00 88 1025.2
20220523123410 11 9 3.2 0.0 0.00 0.00 0.00 88 1025.1
20220523123309 11 5 0.0 0.0 0.00 0.00 0.00 89 1025.1
20220523123207 11 5 0.0 0.0 0.00 0.00 0.00 89 1025.1
20220523123105 11 5 0.0 0.0 0.00 0.00 0.00 89 1025.2
20220523123004 11 70 0.0 0.0 0.00 0.00 0.00 90 1025.0
20220523122910 11 70 0.0 0.0 0.00 0.00 0.00 91 1025.0
20220523122808 11 23 0.0 0.0 0.00 0.00 0.00 91 1025.2
20220523122707 11 11 1.6 0.0 0.00 0.00 0.00 91 1025.1
20220523122602 11 21 0.0 0.0 0.00 0.00 0.00 91 1025.2
20220523122503 11 21 0.0 0.0 0.00 0.00 0.00 92 1025.1
20220523122403 11 21 0.0 0.0 0.00 0.00 0.00 92 1025.2
20220523122307 11 21 0.0 0.0 0.00 0.00 0.00 92 1025.2
20220523122203 11 21 0.0 0.0 0.00 0.00 0.00 92 1025.2
20220523122102 11 21 0.0 0.0 0.00 0.00 0.00 93 1025.3
20220523122005 10 55 0.0 0.0 0.00 0.00 0.00 94 1025.3
20220523121901 10 54 0.0 0.0 0.00 0.00 0.00 93 1025.3
20220523121759 10 55 0.0 0.0 0.00 0.00 0.00 94 1025.2
20220523121702 10 55 0.0 0.0 0.00 0.00 0.00 94 1025.2
20220523121603 10 317 0.0 0.0 0.00 0.00 0.00 94 1025.3
20220523121459 10 317 0.0 0.0 0.00 0.00 0.00 94 1025.3
20220523121401 10 317 0.0 0.0 0.00 0.00 0.00 94 1025.4
20220523121301 10 317 0.0 0.0 0.00 0.00 0.00 95 1025.3
20220523121200 10 317 0.0 0.0 0.00 0.00 0.00 94 1025.3
20220523121101 10 317 0.0 0.0 0.00 0.00 0.00 95 1025.3
20220523121006 10 316 0.0 0.0 0.00 0.00 0.00 95 1025.3
20220523120906 10 303 0.0 0.0 0.00 0.00 0.00 95 1025.4
20220523120806 10 303 0.0 0.0 0.00 0.00 0.00 95 1025.3
20220523120705 10 300 0.0 0.0 0.00 0.00 0.00 95 1025.1
20220523120605 10 300 0.0 0.0 0.00 0.00 0.00 95 1025.3
20220523120506 10 298 0.0 0.0 0.00 0.00 0.00 95 1025.3
20220523120351 10 298 0.0 0.0 0.00 0.00 0.00 95 1025.3
20220523120250 10 298 0.0 0.0 0.00 0.00 0.00 95 1025.3
20220523120210 10 298 0.0 0.0 0.00 0.00 0.00 95 1025.3
20220523120050 10 298 0.0 0.0 0.00 0.00 0.00 95 1025.4
20220523115951 10 298 0.0 0.0 0.00 0.00 0.00 95 1025.3
20220523115849 10 298 0.0 0.0 0.00 0.00 0.00 95 1025.3
20220523115751 9 298 0.0 0.0 0.00 0.00 0.00 95 1025.3
20220523115656 9 298 0.0 0.0 0.00 0.00 0.00 95 1025.3
20220523115556 9 295 0.0 0.0 0.00 0.00 0.00 95 1025.2
20220523115457 9 295 0.0 0.0 0.00 0.00 0.00 95 1025.2
20220523115357 9 295 0.0 0.0 0.00 0.00 0.00 95 1025.2
20220523115258 9 294 0.0 0.0 0.00 0.00 0.00 95 1025.2
20220523115158 9 291 0.0 0.0 0.00 0.00 0.00 95 1025.2
20220523115103 9 291 0.0 0.0 0.00 0.00 0.00 95 1025.2
20220523115003 9 291 0.0 0.0 0.00 0.00 0.00 95 1025.3
20220523114902 9 291 0.0 0.0 0.00 0.00 0.00 95 1025.2
20220523114805 9 291 0.0 0.0 0.00 0.00 0.00 95 1025.2
20220523114705 9 291 0.0 0.0 0.00 0.00 0.00 95 1025.1
20220523114604 9 291 0.0 0.0 0.00 0.00 0.00 95 1025.1
20220523114506 8 291 0.0 0.0 0.00 0.00 0.00 95 1025.1
20220523114350 8 291 0.0 0.0 0.00 0.00 0.00 95 1025.0
20220523114250 8 291 0.0 0.0 0.00 0.00 0.00 95 1025.0
20220523114152 8 291 0.0 0.0 0.00 0.00 0.00 95 1025.0
20220523114054 8 291 0.0 0.0 0.00 0.00 0.00 95 1025.1
20220523113954 8 291 0.0 0.0 0.00 0.00 0.00 95 1025.0
20220523113855 8 291 0.0 0.0 0.00 0.00 0.00 95 1024.9
20220523113800 8 291 0.0 0.0 0.00 0.00 0.00 95 1025.0
20220523113700 8 291 0.0 0.0 0.00 0.00 0.00 95 1025.0
20220523113601 8 291 0.0 0.0 0.00 0.00 0.00 95 1024.9
20220523113502 8 291 0.0 0.0 0.00 0.00 0.00 95 1025.1
20220523113401 8 291 0.0 0.0 0.00 0.00 0.00 95 1024.9
20220523113300 8 291 0.0 0.0 0.00 0.00 0.00 95 1024.9
20220523113207 8 291 0.0 0.0 0.00 0.00 0.00 95 1024.9
20220523113047 8 291 0.0 0.0 0.00 0.00 0.00 95 1024.9
20220523112950 8 291 0.0 0.0 0.00 0.00 0.00 95 1024.8
20220523112849 8 291 0.0 0.0 0.00 0.00 0.00 95 1024.9
20220523112750 8 291 0.0 0.0 0.00 0.00 0.00 95 1024.9
20220523112651 8 291 0.0 0.0 0.00 0.00 0.00 95 1024.9
20220523112556 8 291 0.0 0.0 0.00 0.00 0.00 95 1024.8
20220523112455 8 328 0.0 0.0 0.00 0.00 0.00 95 1024.8
20220523112356 8 3 0.0 0.0 0.00 0.00 0.00 95 1024.7
20220523112255 8 3 0.0 0.0 0.00 0.00 0.00 95 1024.8
20220523112155 8 3 0.0 0.0 0.00 0.00 0.00 95 1024.8
20220523112054 8 3 0.0 0.0 0.00 0.00 0.00 95 1024.8
20220523111953 8 3 0.0 0.0 0.00 0.00 0.00 95 1024.9
20220523111858 8 3 0.0 0.0 0.00 0.00 0.00 95 1024.8
20220523111758 8 3 0.0 0.0 0.00 0.00 0.00 94 1024.8
20220523111659 8 3 0.0 0.0 0.00 0.00 0.00 95 1024.8
20220523111601 8 3 0.0 0.0 0.00 0.00 0.00 95 1024.9
20220523111459 8 3 0.0 0.0 0.00 0.00 0.00 95 1024.8
20220523111358 8 3 0.0 0.0 0.00 0.00 0.00 95 1024.9
20220523111302 8 3 0.0 0.0 0.00 0.00 0.00 95 1024.7
20220523111202 8 3 0.0 0.0 0.00 0.00 0.00 95 1024.7
20220523111101 8 3 0.0 0.0 0.00 0.00 0.00 95 1024.7
20220523110959 8 3 0.0 0.0 0.00 0.00 0.00 95 1024.6
20220523110858 8 3 0.0 0.0 0.00 0.00 0.00 94 1024.7
20220523110756 8 3 0.0 0.0 0.00 0.00 0.00 94 1024.7
20220523110656 8 3 0.0 0.0 0.00 0.00 0.00 94 1024.6
20220523110559 8 3 0.0 0.0 0.00 0.00 0.00 95 1024.7
20220523110500 8 1 0.0 0.0 0.00 0.00 0.00 95 1024.7
20220523110358 8 1 0.0 0.0 0.00 0.00 0.00 95 1024.8
20220523110300 8 1 0.0 0.0 0.00 0.00 0.00 94 1024.8
20220523110155 8 1 0.0 0.0 0.00 0.00 0.00 95 1024.6
20220523110054 8 1 0.0 0.0 0.00 0.00 0.00 95 1024.8
20220523105958 8 1 0.0 0.0 0.00 0.00 0.00 94 1024.6
20220523105859 8 1 0.0 0.0 0.00 0.00 0.00 95 1024.6
20220523105758 8 1 0.0 0.0 0.00 0.00 0.00 95 1024.6
20220523105700 8 1 0.0 0.0 0.00 0.00 0.00 94 1024.6
20220523105559 8 1 0.0 0.0 0.00 0.00 0.00 95 1024.5
20220523105500 8 1 0.0 0.0 0.00 0.00 0.00 95 1024.7
20220523105400 8 1 0.0 0.0 0.00 0.00 0.00 95 1024.6
20220523105303 8 1 0.0 0.0 0.00 0.00 0.00 95 1024.5
20220523105204 8 0 0.0 0.0 0.00 0.00 0.00 95 1024.7
20220523105107 8 0 0.0 0.0 0.00 0.00 0.00 95 1024.7
20220523105006 8 0 0.0 0.0 0.00 0.00 0.00 95 1024.7
20220523104904 8 0 0.0 0.0 0.00 0.00 0.00 95 1024.7
20220523104805 8 0 0.0 0.0 0.00 0.00 0.00 95 1024.7
20220523104648 8 0 0.0 0.0 0.00 0.00 0.00 95 1024.7
20220523104608 8 0 0.0 0.0 0.00 0.00 0.00 95 1024.8
20220523104508 8 0 0.0 0.0 0.00 0.00 0.00 95 1024.6
20220523104349 8 0 0.0 0.0 0.00 0.00 0.00 95 1024.8
20220523104250 8 0 0.0 0.0 0.00 0.00 0.00 94 1024.8
20220523104210 8 0 0.0 0.0 0.00 0.00 0.00 95 1024.7
20220523104050 8 0 0.0 0.0 0.00 0.00 0.00 94 1024.7
20220523103950 8 0 0.0 0.0 0.00 0.00 0.00 94 1024.7
20220523103850 8 0 0.0 0.0 0.00 0.00 0.00 94 1024.6
20220523103751 8 0 0.0 0.0 0.00 0.00 0.00 95 1024.7
20220523103710 8 0 0.0 0.0 0.00 0.00 0.00 94 1024.6
20220523103610 8 0 0.0 0.0 0.00 0.00 0.00 94 1024.6
20220523103450 8 0 0.0 0.0 0.00 0.00 0.00 95 1024.6
20220523103354 8 0 0.0 0.0 0.00 0.00 0.00 95 1024.6
20220523103250 8 0 0.0 0.0 0.00 0.00 0.00 95 1024.6
20220523103150 8 0 0.0 0.0 0.00 0.00 0.00 95 1024.6
20220523103109 8 0 0.0 0.0 0.00 0.00 0.00 95 1024.5
20220523103008 8 0 0.0 0.0 0.00 0.00 0.00 95 1024.4
20220523102908 8 0 0.0 0.0 0.00 0.00 0.00 95 1024.5
20220523102752 8 0 0.0 0.0 0.00 0.00 0.00 95 1024.5
20220523102652 8 0 0.0 0.0 0.00 0.00 0.00 95 1024.6
20220523102552 8 0 0.0 0.0 0.00 0.00 0.00 95 1024.5
20220523102449 8 0 0.0 0.0 0.00 0.00 0.00 95 1024.7
20220523102350 8 0 0.0 0.0 0.00 0.00 0.00 95 1024.6
20220523102251 8 0 0.0 0.0 0.00 0.00 0.00 95 1024.5
20220523102151 8 0 0.0 0.0 0.00 0.00 0.00 95 1024.6
20220523102055 8 0 0.0 0.0 0.00 0.00 0.00 95 1024.5
20220523101956 8 0 0.0 0.0 0.00 0.00 0.00 95 1024.6
20220523101856 8 0 0.0 0.0 0.00 0.00 0.00 95 1024.6
20220523101756 8 0 0.0 0.0 0.00 0.00 0.00 95 1024.7
20220523101657 8 0 0.0 0.0 0.00 0.00 0.00 95 1024.7
20220523101557 8 0 0.0 0.0 0.00 0.00 0.00 95 1024.6
20220523101500 8 0 0.0 0.0 0.00 0.00 0.00 95 1024.6
20220523101357 8 0 0.0 0.0 0.00 0.00 0.00 95 1024.6
20220523101258 8 0 0.0 0.0 0.00 0.00 0.00 95 1024.5
20220523101157 8 0 0.0 0.0 0.00 0.00 0.00 95 1024.5
20220523101056 8 0 0.0 0.0 0.00 0.00 0.00 95 1024.6
20220523100958 8 0 0.0 0.0 0.00 0.00 0.00 95 1024.5
20220523100857 8 0 0.0 0.0 0.00 0.00 0.00 95 1024.8
20220523100803 8 0 0.0 0.0 0.00 0.00 0.00 95 1024.6
20220523100700 8 0 0.0 0.0 0.00 0.00 0.00 95 1024.6
20220523100559 8 0 0.0 0.0 0.00 0.00 0.00 95 1024.6
20220523100500 8 0 0.0 0.0 0.00 0.00 0.00 95 1024.5
20220523100400 8 0 0.0 0.0 0.00 0.00 0.00 95 1024.5
20220523100259 8 0 0.0 0.0 0.00 0.00 0.00 95 1024.5
20220523100203 8 0 0.0 0.0 0.00 0.00 0.00 95 1024.5
20220523100104 8 0 0.0 0.0 0.00 0.00 0.00 95 1024.6
20220523100004 8 0 0.0 0.0 0.00 0.00 0.00 95 1024.6
20220523095904 8 0 0.0 0.0 0.00 0.00 0.00 95 1024.6
20220523095806 8 0 0.0 0.0 0.00 0.00 0.00 95 1024.6
20220523095703 8 0 0.0 0.0 0.00 0.00 0.00 95 1024.6
20220523095600 8 0 0.0 0.0 0.00 0.00 0.00 95 1024.6
20220523095506 8 0 0.0 0.0 0.00 0.00 0.00 95 1024.5
20220523095405 8 0 0.0 0.0 0.00 0.00 0.00 95 1024.6
20220523095304 8 0 0.0 0.0 0.00 0.00 0.00 95 1024.5
20220523095206 8 0 0.0 0.0 0.00 0.00 0.00 95 1024.7
20220523095105 8 0 0.0 0.0 0.00 0.00 0.00 95 1024.6
20220523095005 8 0 0.0 0.0 0.00 0.00 0.00 95 1024.5
20220523094910 8 0 0.0 0.0 0.00 0.00 0.00 95 1024.6
20220523094810 8 0 0.0 0.0 0.00 0.00 0.00 94 1024.6
20220523094709 8 0 0.0 0.0 0.00 0.00 0.00 95 1024.6
20220523094606 8 0 0.0 0.0 0.00 0.00 0.00 95 1024.5
20220523094505 8 0 0.0 0.0 0.00 0.00 0.00 95 1024.6
20220523094405 8 0 0.0 0.0 0.00 0.00 0.00 95 1024.6
20220523094250 8 0 0.0 0.0 0.00 0.00 0.00 95 1024.7
20220523094151 8 0 0.0 0.0 0.00 0.00 0.00 95 1024.5
20220523094050 8 0 0.0 0.0 0.00 0.00 0.00 95 1024.6
20220523093951 8 0 0.0 0.0 0.00 0.00 0.00 95 1024.6
20220523093851 8 0 0.0 0.0 0.00 0.00 0.00 95 1024.6
20220523093752 8 0 0.0 0.0 0.00 0.00 0.00 95 1024.6
20220523093649 8 0 0.0 0.0 0.00 0.00 0.00 95 1024.6
20220523093554 8 0 0.0 0.0 0.00 0.00 0.00 95 1024.5
20220523093455 8 0 0.0 0.0 0.00 0.00 0.00 95 1024.6
20220523093355 8 0 0.0 0.0 0.00 0.00 0.00 95 1024.5
20220523093255 8 0 0.0 0.0 0.00 0.00 0.00 95 1024.5
20220523093155 8 0 0.0 0.0 0.00 0.00 0.00 95 1024.6
20220523093055 8 0 0.0 0.0 0.00 0.00 0.00 95 1024.4
20220523093001 8 0 0.0 0.0 0.00 0.00 0.00 95 1024.6
20220523092900 8 0 0.0 0.0 0.00 0.00 0.00 96 1024.5
20220523092759 8 0 0.0 0.0 0.00 0.00 0.00 95 1024.4
20220523092700 8 0 0.0 0.0 0.00 0.00 0.00 95 1024.5
20220523092559 8 0 0.0 0.0 0.00 0.00 0.00 95 1024.5
20220523092459 8 0 0.0 0.0 0.00 0.00 0.00 95 1024.5
20220523092359 8 0 0.0 0.0 0.00 0.00 0.00 96 1024.5
20220523092302 8 0 0.0 0.0 0.00 0.00 0.00 95 1024.5
20220523092203 8 0 0.0 0.0 0.00 0.00 0.00 95 1024.5
20220523092102 8 0 0.0 0.0 0.00 0.00 0.00 95 1024.6
20220523092003 8 0 0.0 0.0 0.00 0.00 0.00 95 1024.6
20220523091902 8 0 0.0 0.0 0.00 0.00 0.00 95 1024.5
20220523091802 8 0 0.0 0.0 0.00 0.00 0.00 95 1024.5
20220523091706 8 0 0.0 0.0 0.00 0.00 0.00 95 1024.6
20220523091604 8 0 0.0 0.0 0.00 0.00 0.00 95 1024.6
20220523091503 8 0 0.0 0.0 0.00 0.00 0.00 95 1024.7
20220523091403 8 0 0.0 0.0 0.00 0.00 0.00 94 1024.6
20220523091302 8 0 0.0 0.0 0.00 0.00 0.00 94 1024.6
20220523091202 8 0 0.0 0.0 0.00 0.00 0.00 95 1024.6
20220523091100 8 0 0.0 0.0 0.00 0.00 0.00 95 1024.6
20220523091003 8 0 0.0 0.0 0.00 0.00 0.00 95 1024.6
20220523090904 8 0 0.0 0.0 0.00 0.00 0.00 95 1024.6
20220523090803 8 0 0.0 0.0 0.00 0.00 0.00 95 1024.5
20220523090702 8 0 0.0 0.0 0.00 0.00 0.00 95 1024.6
20220523090603 8 0 0.0 0.0 0.00 0.00 0.00 94 1024.7
20220523090502 8 0 0.0 0.0 0.00 0.00 0.00 94 1024.5
20220523090406 8 0 0.0 0.0 0.00 0.00 0.00 94 1024.6
20220523090307 8 0 0.0 0.0 0.00 0.00 0.00 94 1024.5
20220523090206 8 0 0.0 0.0 0.00 0.00 0.00 94 1024.5
20220523090106 8 0 0.0 0.0 0.00 0.00 0.00 94 1024.6
20220523090007 8 0 0.0 0.0 0.00 0.00 0.00 94 1024.4
20220523085905 8 0 0.0 0.0 0.00 0.00 0.00 94 1024.5
20220523085802 8 0 0.0 0.0 0.00 0.00 0.00 94 1024.6
20220523085707 8 0 0.0 0.0 0.00 0.00 0.00 95 1024.5
20220523085608 8 0 0.0 0.0 0.00 0.00 0.00 95 1024.4
20220523085507 8 0 0.0 0.0 0.00 0.00 0.00 95 1024.5
20220523085406 8 0 0.0 0.0 0.00 0.00 0.00 95 1024.5
20220523085303 8 0 0.0 0.0 0.00 0.00 0.00 95 1024.6
20220523085201 8 0 0.0 0.0 0.00 0.00 0.00 95 1024.5
20220523085106 8 0 0.0 0.0 0.00 0.00 0.00 95 1024.6
20220523085004 9 0 0.0 0.0 0.00 0.00 0.00 95 1024.5
20220523084901 9 0 0.0 0.0 0.00 0.00 0.00 95 1024.5
20220523084758 9 0 0.0 0.0 0.00 0.00 0.00 95 1024.5
20220523084656 9 0 0.0 0.0 0.00 0.00 0.00 95 1024.5
20220523084556 9 0 0.0 0.0 0.00 0.00 0.00 95 1024.3
20220523084453 9 0 0.0 0.0 0.00 0.00 0.00 95 1024.4
20220523084357 9 0 0.0 0.0 0.00 0.00 0.00 95 1024.3
20220523084256 9 0 0.0 0.0 0.00 0.00 0.00 95 1024.4
20220523084155 9 0 0.0 0.0 0.00 0.00 0.00 94 1024.4
20220523084111 9 0 0.0 0.0 0.00 0.00 0.00 95 1024.4
20220523084006 9 0 0.0 0.0 0.00 0.00 0.00 95 1024.4
20220523083906 9 0 0.0 0.0 0.00 0.00 0.00 95 1024.5
20220523083804 9 0 0.0 0.0 0.00 0.00 0.00 95 1024.4
20220523083704 9 0 0.0 0.0 0.00 0.00 0.00 95 1024.4
20220523083603 9 0 0.0 0.0 0.00 0.00 0.00 95 1024.5
20220523083501 9 0 0.0 0.0 0.00 0.00 0.00 95 1024.4
20220523083359 9 0 0.0 0.0 0.00 0.00 0.00 95 1024.4
20220523083300 9 0 0.0 0.0 0.00 0.00 0.00 95 1024.4
20220523083159 9 0 0.0 0.0 0.00 0.00 0.00 95 1024.4
20220523083102 9 0 0.0 0.0 0.00 0.00 0.00 95 1024.3
20220523083003 9 0 0.0 0.0 0.00 0.00 0.00 95 1024.3
20220523082901 9 0 0.0 0.0 0.00 0.00 0.00 95 1024.5
20220523082800 9 0 0.0 0.0 0.00 0.00 0.00 95 1024.4
20220523082702 9 0 0.0 0.0 0.00 0.00 0.00 95 1024.4
20220523082559 9 0 0.0 0.0 0.00 0.00 0.00 95 1024.4
20220523082454 9 0 0.0 0.0 0.00 0.00 0.00 95 1024.4
20220523082357 9 0 0.0 0.0 0.00 0.00 0.00 95 1024.4
20220523082258 9 0 0.0 0.0 0.00 0.00 0.00 95 1024.5
20220523082155 9 0 0.0 0.0 0.00 0.00 0.00 95 1024.4
20220523082055 9 0 0.0 0.0 0.00 0.00 0.00 94 1024.4
20220523081955 9 0 0.0 0.0 0.00 0.00 0.00 94 1024.5
20220523081853 9 0 0.0 0.0 0.00 0.00 0.00 95 1024.3
20220523081756 9 0 0.0 0.0 0.00 0.00 0.00 95 1024.4
20220523081654 9 0 0.0 0.0 0.00 0.00 0.00 94 1024.4
20220523081551 9 0 0.0 0.0 0.00 0.00 0.00 94 1024.5
20220523081451 9 0 0.0 0.0 0.00 0.00 0.00 94 1024.5
20220523081411 9 0 0.0 0.0 0.00 0.00 0.00 94 1024.5
20220523081309 9 0 0.0 0.0 0.00 0.00 0.00 94 1024.4
20220523081207 9 0 0.0 0.0 0.00 0.00 0.00 94 1024.5
20220523081109 9 0 0.0 0.0 0.00 0.00 0.00 94 1024.5
20220523081010 9 0 0.0 0.0 0.00 0.00 0.00 94 1024.4
20220523080906 9 0 0.0 0.0 0.00 0.00 0.00 94 1024.4
20220523080805 9 0 0.0 0.0 0.00 0.00 0.00 94 1024.5
20220523080706 9 0 0.0 0.0 0.00 0.00 0.00 94 1024.4
20220523080604 9 0 0.0 0.0 0.00 0.00 0.00 94 1024.6
20220523080503 9 0 0.0 0.0 0.00 0.00 0.00 94 1024.6
20220523080407 9 0 0.0 0.0 0.00 0.00 0.00 94 1024.5
20220523080304 9 0 0.0 0.0 0.00 0.00 0.00 94 1024.6
20220523080204 9 0 0.0 0.0 0.00 0.00 0.00 94 1024.6
20220523080104 9 0 0.0 0.0 0.00 0.00 0.00 94 1024.5
20220523080003 9 0 0.0 0.0 0.00 0.00 0.00 94 1024.6
20220523075901 9 0 0.0 0.0 0.00 0.00 0.00 94 1024.5
20220523075804 9 0 0.0 0.0 0.00 0.00 0.00 94 1024.4
20220523075704 10 0 0.0 0.0 0.00 0.00 0.00 93 1024.5
20220523075601 10 0 0.0 0.0 0.00 0.00 0.00 93 1024.6
20220523075500 10 0 0.0 0.0 0.00 0.00 0.00 93 1024.6
20220523075359 10 0 0.0 0.0 0.00 0.00 0.00 94 1024.6
20220523075256 10 0 0.0 0.0 0.00 0.00 0.00 93 1024.6
20220523075152 10 0 0.0 0.0 0.00 0.00 0.00 93 1024.6
20220523075055 10 0 0.0 0.0 0.00 0.00 0.00 93 1024.7
20220523074954 10 0 0.0 0.0 0.00 0.00 0.00 93 1024.6
20220523074853 10 0 0.0 0.0 0.00 0.00 0.00 93 1024.8
20220523074811 10 0 0.0 0.0 0.00 0.00 0.00 93 1024.7
20220523074709 10 0 0.0 0.0 0.00 0.00 0.00 93 1024.7
20220523074607 10 0 0.0 0.0 0.00 0.00 0.00 93 1024.7
20220523074451 10 0 0.0 0.0 0.00 0.00 0.00 93 1024.7
20220523074351 10 0 0.0 0.0 0.00 0.00 0.00 93 1024.7
20220523074310 10 0 0.0 0.0 0.00 0.00 0.00 93 1024.6
20220523074206 10 0 0.0 0.0 0.00 0.00 0.00 93 1024.7
20220523074101 10 0 0.0 0.0 0.00 0.00 0.00 93 1024.7
20220523074000 10 0 0.0 0.0 0.00 0.00 0.00 93 1024.7
20220523073858 10 0 0.0 0.0 0.00 0.00 0.00 93 1024.7
20220523073802 10 0 0.0 0.0 0.00 0.00 0.00 93 1024.7
20220523073701 10 0 0.0 0.0 0.00 0.00 0.00 93 1024.8
20220523073559 10 0 0.0 0.0 0.00 0.00 0.00 94 1024.7
20220523073500 10 0 0.0 0.0 0.00 0.00 0.00 93 1024.8
20220523073358 10 0 0.0 0.0 0.00 0.00 0.00 93 1024.8
20220523073256 10 0 0.0 0.0 0.00 0.00 0.00 93 1024.8
20220523073154 10 0 0.0 0.0 0.00 0.00 0.00 93 1024.8
20220523073058 10 0 0.0 0.0 0.00 0.00 0.00 92 1024.9
20220523072958 10 0 0.0 0.0 0.00 0.00 0.00 93 1024.8
20220523072857 10 0 0.0 0.0 0.00 0.00 0.00 93 1025.0
20220523072754 10 0 0.0 0.0 0.00 0.00 0.00 93 1024.8
20220523072652 10 0 0.0 0.0 0.00 0.00 0.00 92 1024.8
20220523072550 10 0 0.0 0.0 0.00 0.00 0.00 92 1024.9
20220523072454 10 0 0.0 0.0 0.00 0.00 0.00 92 1024.9
20220523072352 10 0 0.0 0.0 0.00 0.00 0.00 91 1024.9
20220523072252 10 0 0.0 0.0 0.00 0.00 0.00 91 1024.8
20220523072209 10 0 0.0 0.0 0.00 0.00 0.00 91 1024.8
20220523072110 10 0 0.0 0.0 0.00 0.00 0.00 91 1024.9
20220523072007 10 0 0.0 0.0 0.00 0.00 0.00 91 1025.0
20220523071905 10 0 0.0 0.0 0.00 0.00 0.00 91 1025.0
20220523071809 10 0 0.0 0.0 0.00 0.00 0.00 91 1024.9
20220523071709 10 0 0.0 0.0 0.00 0.00 0.00 91 1024.9
20220523071605 10 0 0.0 0.0 0.00 0.00 0.00 91 1024.8
20220523071505 10 0 0.0 0.0 0.00 0.00 0.00 91 1024.9
20220523071401 10 0 0.0 0.0 0.00 0.00 0.00 90 1024.8
20220523071300 10 0 0.0 0.0 0.00 0.00 0.00 90 1024.9
20220523071200 10 0 0.0 0.0 0.00 0.00 0.00 90 1024.9
20220523071103 10 0 0.0 0.0 0.00 0.00 0.00 88 1024.9
20220523071001 10 0 0.0 0.0 0.00 0.00 0.00 88 1024.8
20220523070857 10 0 0.0 0.0 0.00 0.00 0.00 88 1024.8
20220523070759 10 0 0.0 0.0 0.00 0.00 0.00 87 1024.7
20220523070656 10 0 0.0 0.0 0.00 0.00 0.00 87 1024.8
20220523070553 10 0 0.0 0.0 0.00 0.00 0.00 87 1024.8
20220523070458 10 0 0.0 0.0 0.00 0.00 0.00 87 1025.0
20220523070355 10 0 0.0 0.0 0.00 0.00 0.00 87 1024.9
20220523070255 10 0 0.0 0.0 0.00 0.00 0.00 87 1024.9
20220523070211 10 0 0.0 0.0 0.00 0.00 0.00 87 1024.7
20220523070108 10 0 0.0 0.0 0.00 0.00 0.00 87 1024.8
20220523070006 10 0 0.0 0.0 0.00 0.00 0.00 87 1024.8
20220523065901 10 0 0.0 0.0 0.00 0.00 0.00 87 1024.9
20220523065804 10 0 0.0 0.0 0.00 0.00 0.00 87 1024.8
20220523065704 10 0 0.0 0.0 0.00 0.00 0.00 86 1024.9
20220523065602 10 0 0.0 0.0 0.00 0.00 0.00 86 1024.8
20220523065458 10 0 0.0 0.0 0.00 0.00 0.00 86 1024.8
20220523065358 10 0 0.0 0.0 0.00 0.00 0.00 86 1025.0
20220523065257 10 0 0.0 0.0 0.00 0.00 0.00 86 1024.9
20220523065155 10 0 0.0 0.0 0.00 0.00 0.00 86 1025.0
20220523065059 10 0 0.0 0.0 0.00 0.00 0.00 86 1024.9
20220523064958 10 0 0.0 0.0 0.00 0.00 0.00 86 1024.9
20220523064859 10 0 0.0 0.0 0.00 0.00 0.00 86 1025.0
20220523064759 10 0 0.0 0.0 0.00 0.00 0.00 86 1024.9
20220523064657 10 0 0.0 0.0 0.00 0.00 0.00 86 1024.8
20220523064558 10 0 0.0 0.0 0.00 0.00 0.00 86 1025.1
20220523064501 10 0 0.0 0.0 0.00 0.00 0.00 86 1024.9
20220523064359 10 0 0.0 0.0 0.00 0.00 0.00 86 1025.1
20220523064256 10 0 0.0 0.0 0.00 0.00 0.00 85 1025.0
20220523064155 10 0 0.0 0.0 0.00 0.00 0.00 85 1024.9
20220523064053 10 0 0.0 0.0 0.00 0.00 0.00 85 1025.0
20220523063952 10 0 0.0 0.0 0.00 0.00 0.00 85 1025.0
20220523063853 10 0 0.0 0.0 0.00 0.00 0.00 85 1025.1
20220523063754 10 0 0.0 0.0 0.00 0.00 0.00 85 1025.0
20220523063653 10 0 0.0 0.0 0.00 0.00 0.00 85 1025.1
20220523063553 11 0 0.0 0.0 0.00 0.00 0.00 85 1025.2
20220523063512 11 0 0.0 0.0 0.00 0.00 0.00 85 1025.2
20220523063409 11 0 0.0 0.0 0.00 0.00 0.00 84 1025.1
20220523063308 11 0 0.0 0.0 0.00 0.00 0.00 85 1025.1
20220523063207 11 0 0.0 0.0 0.00 0.00 0.00 84 1025.0
20220523063110 11 0 0.0 0.0 0.00 0.00 0.00 85 1024.9
20220523063009 11 0 0.0 0.0 0.00 0.00 0.00 84 1025.0
20220523062908 11 0 0.0 0.0 0.00 0.00 0.00 84 1025.1
20220523062806 11 0 0.0 0.0 0.00 0.00 0.00 85 1025.1
20220523062703 11 0 0.0 0.0 0.00 0.00 0.00 84 1025.1
20220523062602 11 0 0.0 0.0 0.00 0.00 0.00 84 1025.2
20220523062508 11 0 0.0 0.0 0.00 0.00 0.00 84 1025.1
20220523062405 11 0 0.0 0.0 0.00 0.00 0.00 84 1025.0
20220523062303 11 0 0.0 0.0 0.00 0.00 0.00 84 1025.0
20220523062205 11 0 0.0 0.0 0.00 0.00 0.00 85 1025.1
20220523062101 11 0 0.0 0.0 0.00 0.00 0.00 84 1025.0
20220523062001 11 0 0.0 0.0 0.00 0.00 0.00 85 1025.1
20220523061858 11 0 0.0 0.0 0.00 0.00 0.00 84 1025.1
20220523061801 11 0 0.0 0.0 0.00 0.00 0.00 84 1025.1
20220523061701 11 0 0.0 0.0 0.00 0.00 0.00 84 1025.2
20220523061558 11 0 0.0 0.0 0.00 0.00 0.00 84 1025.4
20220523061459 11 0 0.0 0.0 0.00 0.00 0.00 84 1025.1
20220523061356 11 0 0.0 0.0 0.00 0.00 0.00 84 1025.2
20220523061254 11 0 0.0 0.0 0.00 0.00 0.00 84 1025.2
20220523061157 11 0 0.0 0.0 0.00 0.00 0.00 84 1025.3
20220523061056 11 0 0.0 0.0 0.00 0.00 0.00 84 1025.2
20220523060953 11 0 0.0 0.0 0.00 0.00 0.00 84 1025.1
20220523060854 11 0 0.0 0.0 0.00 0.00 0.00 84 1025.3
20220523060752 11 0 0.0 0.0 0.00 0.00 0.00 84 1025.3
20220523060650 11 0 0.0 0.0 0.00 0.00 0.00 84 1025.3
20220523060552 11 0 0.0 0.0 0.00 0.00 0.00 84 1025.4
20220523060456 11 0 0.0 0.0 0.00 0.00 0.00 84 1025.2
20220523060354 11 0 0.0 0.0 0.00 0.00 0.00 84 1025.3
20220523060252 11 0 0.0 0.0 0.00 0.00 0.00 84 1025.4
20220523060151 11 0 0.0 0.0 0.00 0.00 0.00 84 1025.3
20220523060110 11 0 0.0 0.0 0.00 0.00 0.00 84 1025.3
20220523060009 11 0 0.0 0.0 0.00 0.00 0.00 84 1025.4
20220523055851 11 0 0.0 0.0 0.00 0.00 0.00 84 1025.4
20220523055811 11 0 0.0 0.0 0.00 0.00 0.00 83 1025.3
20220523055709 11 0 0.0 0.0 0.00 0.00 0.00 84 1025.5
20220523055606 11 0 0.0 0.0 0.00 0.00 0.00 84 1025.4
20220523055505 11 0 0.0 0.0 0.00 0.00 0.00 83 1025.4
20220523055404 11 0 0.0 0.0 0.00 0.00 0.00 83 1025.5
20220523055302 11 0 0.0 0.0 0.00 0.00 0.00 83 1025.5
20220523055208 11 0 0.0 0.0 0.00 0.00 0.00 84 1025.5
20220523055107 11 0 0.0 0.0 0.00 0.00 0.00 84 1025.5
20220523055005 11 0 0.0 0.0 0.00 0.00 0.00 83 1025.5
20220523054906 11 0 0.0 0.0 0.00 0.00 0.00 83 1025.6
20220523054805 11 0 0.0 0.0 0.00 0.00 0.00 84 1025.5
20220523054703 11 0 0.0 0.0 0.00 0.00 0.00 84 1025.6
20220523054602 11 0 0.0 0.0 0.00 0.00 0.00 84 1025.6
20220523054505 11 0 0.0 0.0 0.00 0.00 0.00 84 1025.5
20220523054403 11 0 0.0 0.0 0.00 0.00 0.00 84 1025.5
20220523054302 11 0 0.0 0.0 0.00 0.00 0.00 84 1025.5
20220523054201 11 0 0.0 0.0 0.00 0.00 0.00 84 1025.4
20220523054058 11 0 0.0 0.0 0.00 0.00 0.00 84 1025.7
20220523053957 11 0 0.0 0.0 0.00 0.00 0.00 84 1025.6
20220523053859 11 0 0.0 0.0 0.00 0.00 0.00 84 1025.7
20220523053756 11 0 0.0 0.0 0.00 0.00 0.00 83 1025.6
20220523053656 11 0 0.0 0.0 0.00 0.00 0.00 84 1025.7
20220523053555 11 0 0.0 0.0 0.00 0.00 0.00 84 1025.6
20220523053453 11 0 0.0 0.0 0.00 0.00 0.00 84 1025.7
20220523053353 11 0 0.0 0.0 0.00 0.00 0.00 84 1025.7
20220523053309 11 0 0.0 0.0 0.00 0.00 0.00 84 1025.8
20220523053151 11 0 0.0 0.0 0.00 0.00 0.00 84 1025.6
20220523053052 11 0 0.0 0.0 0.00 0.00 0.00 83 1025.6
20220523052951 11 0 0.0 0.0 0.00 0.00 0.00 83 1025.6
20220523052850 11 0 0.0 0.0 0.00 0.00 0.00 84 1025.7
20220523052810 11 0 0.0 0.0 0.00 0.00 0.00 83 1025.7
20220523052708 11 0 0.0 0.0 0.00 0.00 0.00 83 1025.6
20220523052606 11 0 0.0 0.0 0.00 0.00 0.00 83 1025.6
20220523052510 11 0 0.0 0.0 0.00 0.00 0.00 83 1025.7
20220523052407 11 0 0.0 0.0 0.00 0.00 0.00 83 1025.7
20220523052308 11 0 0.0 0.0 0.00 0.00 0.00 84 1025.7
20220523052204 11 0 0.0 0.0 0.00 0.00 0.00 83 1025.7
20220523052102 11 0 0.0 0.0 0.00 0.00 0.00 83 1025.8
20220523052005 11 0 0.0 0.0 0.00 0.00 0.00 83 1025.7
20220523051907 11 0 0.0 0.0 0.00 0.00 0.00 83 1025.8
20220523051805 11 0 0.0 0.0 0.00 0.00 0.00 83 1025.8
20220523051702 11 0 0.0 0.0 0.00 0.00 0.00 83 1025.8
20220523051557 11 0 0.0 0.0 0.00 0.00 0.00 83 1025.8
20220523051455 11 0 0.0 0.0 0.00 0.00 0.00 83 1025.8
20220523051352 11 0 0.0 0.0 0.00 0.00 0.00 83 1025.8
20220523051251 11 0 0.0 0.0 0.00 0.00 0.00 83 1025.9
20220523051154 11 0 0.0 0.0 0.00 0.00 0.00 83 1026.1
20220523051053 11 0 0.0 0.0 0.00 0.00 0.00 83 1025.9
20220523050955 11 0 0.0 0.0 0.00 0.00 0.00 83 1026.0
20220523050853 11 0 0.0 0.0 0.00 0.00 0.00 83 1026.0
20220523050751 11 0 0.0 0.0 0.00 0.00 0.00 83 1025.9
20220523050710 11 0 0.0 0.0 0.00 0.00 0.00 83 1026.0
20220523050551 11 0 0.0 0.0 0.00 0.00 0.00 83 1026.0
20220523050450 11 0 0.0 0.0 0.00 0.00 0.00 83 1026.0
20220523050410 11 0 0.0 0.0 0.00 0.00 0.00 83 1026.1
20220523050306 11 0 0.0 0.0 0.00 0.00 0.00 82 1026.0
20220523050205 11 0 0.0 0.0 0.00 0.00 0.00 82 1025.9
20220523050104 11 0 0.0 0.0 0.00 0.00 0.00 82 1026.1
20220523050012 11 0 0.0 0.0 0.00 0.00 0.00 82 1026.0
20220523045854 11 0 0.0 0.0 0.00 0.00 0.00 82 1026.1
20220523045751 11 0 0.0 0.0 0.00 0.00 0.00 82 1026.1
20220523045711 11 0 0.0 0.0 0.00 0.00 0.00 82 1026.2
20220523045608 11 0 0.0 0.0 0.00 0.00 0.00 82 1026.1
20220523045509 11 0 0.0 0.0 0.00 0.00 0.00 82 1026.1
20220523045408 11 0 0.0 0.0 0.00 0.00 0.00 82 1026.1
20220523045306 11 0 0.0 0.0 0.00 0.00 0.00 82 1026.1
20220523045210 11 0 0.0 0.0 0.00 0.00 0.00 82 1026.2
20220523045107 11 0 0.0 0.0 0.00 0.00 0.00 82 1026.3
20220523045006 11 0 0.0 0.0 0.00 0.00 0.00 82 1026.3
20220523044906 11 0 0.0 0.0 0.00 0.00 0.00 82 1026.2
20220523044803 11 0 0.0 0.0 0.00 0.00 0.00 81 1026.3
20220523044702 11 0 0.0 0.0 0.00 0.00 0.00 82 1026.1
20220523044603 11 0 0.0 0.0 0.00 0.00 0.00 82 1026.0
20220523044503 11 0 0.0 0.0 0.00 0.00 0.00 82 1026.1
20220523044359 11 0 0.0 0.0 0.00 0.00 0.00 82 1026.2
20220523044259 11 0 0.0 0.0 0.00 0.00 0.00 81 1026.2
20220523044157 11 0 0.0 0.0 0.00 0.00 0.00 81 1026.2
20220523044056 11 0 0.0 0.0 0.00 0.00 0.00 82 1026.2
20220523043956 12 0 0.0 0.0 0.00 0.00 0.00 81 1026.2
20220523043858 12 0 0.0 0.0 0.00 0.00 0.00 81 1026.4
20220523043755 12 0 0.0 0.0 0.00 0.00 0.00 81 1026.2
20220523043652 12 0 0.0 0.0 0.00 0.00 0.00 81 1026.1
20220523043550 12 0 0.0 0.0 0.00 0.00 0.00 81 1026.4
20220523043511 12 0 0.0 0.0 0.00 0.00 0.00 81 1026.4
20220523043408 12 0 0.0 0.0 0.00 0.00 0.00 81 1026.4
20220523043305 12 0 0.0 0.0 0.00 0.00 0.00 81 1026.2
20220523043207 12 0 0.0 0.0 0.00 0.00 0.00 81 1026.2
20220523043102 12 0 0.0 0.0 0.00 0.00 0.00 81 1026.4
20220523043000 12 0 0.0 0.0 0.00 0.00 0.00 81 1026.2
20220523042859 12 0 0.0 0.0 0.00 0.00 0.00 81 1026.2
20220523042758 12 0 0.0 0.0 0.00 0.00 0.00 81 1026.2
20220523042655 12 0 0.0 0.0 0.00 0.00 0.00 81 1026.1
20220523042553 12 0 0.0 0.0 0.00 0.00 0.00 81 1026.2
20220523042458 12 0 0.0 0.0 0.00 0.00 0.00 80 1026.2
20220523042356 12 0 0.0 0.0 0.00 0.00 0.00 81 1026.3
20220523042253 12 0 0.0 0.0 0.00 0.00 0.00 80 1026.2
20220523042211 12 0 0.0 0.0 0.00 0.00 0.00 81 1026.1
20220523042107 12 0 0.0 0.0 0.00 0.00 0.00 80 1026.1
20220523042006 12 0 0.0 0.0 0.00 0.00 0.00 80 1025.9
20220523041903 12 0 0.0 0.0 0.00 0.00 0.00 80 1026.1
20220523041806 12 0 0.0 0.0 0.00 0.00 0.00 80 1026.4
20220523041705 12 0 0.0 0.0 0.00 0.00 0.00 80 1026.3
20220523041604 12 0 0.0 0.0 0.00 0.00 0.00 81 1026.3
20220523041504 12 0 0.0 0.0 0.00 0.00 0.00 81 1026.3
20220523041404 12 0 0.0 0.0 0.00 0.00 0.00 80 1026.2
20220523041304 12 0 0.0 0.0 0.00 0.00 0.00 81 1026.2
20220523041206 12 0 0.0 0.0 0.00 0.00 0.00 81 1026.2
20220523041106 12 0 0.0 0.0 0.00 0.00 0.00 80 1026.2
20220523041002 12 0 0.0 0.0 0.00 0.00 0.00 80 1026.1
20220523040858 12 0 0.0 0.0 0.00 0.00 0.00 80 1026.3
20220523040757 12 0 0.0 0.0 0.00 0.00 0.00 80 1026.3
20220523040657 12 0 0.0 0.0 0.00 0.00 0.00 80 1026.3
20220523040554 12 0 0.0 0.0 0.00 0.00 0.00 80 1026.4
20220523040458 12 0 0.0 0.0 0.00 0.00 0.00 80 1026.2
20220523040358 12 0 0.0 0.0 0.00 0.00 0.00 80 1026.2
20220523040256 12 0 0.0 0.0 0.00 0.00 0.00 79 1026.3
20220523040155 12 0 0.0 0.0 0.00 0.00 0.00 79 1026.2
20220523040111 12 0 0.0 0.0 0.00 0.00 0.00 79 1026.3
20220523040009 12 0 0.0 0.0 0.00 0.00 0.00 79 1026.2
20220523035852 12 0 0.0 0.0 0.00 0.00 0.00 79 1026.4
20220523035810 12 0 0.0 0.0 0.00 0.00 0.00 79 1026.2
20220523035708 12 0 0.0 0.0 0.00 0.00 0.00 79 1026.4
20220523035606 12 0 0.0 0.0 0.00 0.00 0.00 79 1026.3
20220523035504 12 0 0.0 0.0 0.00 0.00 0.00 79 1026.2
20220523035403 12 0 0.0 0.0 0.00 0.00 0.00 79 1026.4
20220523035302 12 0 0.0 0.0 0.00 0.00 0.00 79 1026.4
20220523035204 12 0 0.0 0.0 0.00 0.00 0.00 79 1026.3
20220523035104 12 0 0.0 0.0 0.00 0.00 0.00 79 1026.4
20220523035002 12 0 0.0 0.0 0.00 0.00 0.00 79 1026.2
20220523034900 12 0 0.0 0.0 0.00 0.00 0.00 79 1026.3
20220523034758 12 0 0.0 0.0 0.00 0.00 0.00 79 1026.2
20220523034657 12 0 0.0 0.0 0.00 0.00 0.00 79 1026.3
20220523034556 12 0 0.0 0.0 0.00 0.00 0.00 79 1026.3
20220523034459 12 0 0.0 0.0 0.00 0.00 0.00 79 1026.3
20220523034358 12 0 0.0 0.0 0.00 0.00 0.00 79 1026.2
20220523034257 12 0 0.0 0.0 0.00 0.00 0.00 78 1026.3
20220523034155 12 0 0.0 0.0 0.00 0.00 0.00 79 1026.3
20220523034056 12 0 0.0 0.0 0.00 0.00 0.00 79 1026.4
20220523033955 12 0 0.0 0.0 0.00 0.00 0.00 78 1026.4
20220523033859 12 0 0.0 0.0 0.00 0.00 0.00 79 1026.2
20220523033757 12 0 0.0 0.0 0.00 0.00 0.00 78 1026.4
20220523033657 12 0 0.0 0.0 0.00 0.00 0.00 79 1026.3
20220523033559 12 0 0.0 0.0 0.00 0.00 0.00 78 1026.2
20220523033455 12 0 0.0 0.0 0.00 0.00 0.00 79 1026.2
20220523033354 12 0 0.0 0.0 0.00 0.00 0.00 79 1026.4
20220523033250 12 0 0.0 0.0 0.00 0.00 0.00 79 1026.3
20220523033156 12 0 0.0 0.0 0.00 0.00 0.00 79 1026.4
20220523033053 12 0 0.0 0.0 0.00 0.00 0.00 79 1026.3
20220523032956 12 0 0.0 0.0 0.00 0.00 0.00 79 1026.3
20220523032852 12 0 0.0 0.0 0.00 0.00 0.00 79 1026.2
20220523032750 12 0 0.0 0.0 0.00 0.00 0.00 78 1026.3
20220523032711 12 0 0.0 0.0 0.00 0.00 0.00 78 1026.4
20220523032554 12 0 0.0 0.0 0.00 0.00 0.00 78 1026.3